| time (UTC) | temp F | wind direction | speed MPH | gust MPH | rain 1hr in | rain 24hr in | rain mn in | humidity % | barometer mb |
| 20260906235500 | 80 | 133 | 5.0 | 12.0 | 0.00 | 0.00 | 0.00 | 22 | 1010.6 |
| 20260906235359 | 80 | 105 | 4.0 | 14.0 | 0.00 | 0.00 | 0.00 | 22 | 1010.6 |
| 20260906235300 | 80 | 186 | 7.0 | 14.0 | 0.00 | 0.00 | 0.00 | 22 | 1010.6 |
| 20260906235100 | 80 | 142 | 3.0 | 14.0 | 0.00 | 0.00 | 0.00 | 22 | 1010.7 |
| 20260906235000 | 80 | 154 | 5.0 | 14.0 | 0.00 | 0.00 | 0.00 | 21 | 1010.8 |
| 20260906234700 | 80 | 180 | 1.0 | 14.0 | 0.00 | 0.00 | 0.00 | 22 | 1010.8 |
| 20260906234559 | 80 | 174 | 6.0 | 14.0 | 0.00 | 0.00 | 0.00 | 22 | 1010.8 |
| 20260906234400 | 80 | 150 | 5.0 | 13.0 | 0.00 | 0.00 | 0.00 | 22 | 1010.8 |
| 20260906234259 | 80 | 186 | 4.0 | 13.0 | 0.00 | 0.00 | 0.00 | 22 | 1010.9 |
| 20260906234000 | 80 | 148 | 4.0 | 16.0 | 0.00 | 0.00 | 0.00 | 22 | 1010.9 |
| 20260906233759 | 80 | 135 | 3.0 | 16.0 | 0.00 | 0.00 | 0.00 | 22 | 1010.9 |
| 20260906233700 | 80 | 131 | 3.0 | 16.0 | 0.00 | 0.00 | 0.00 | 22 | 1011.1 |
| 20260906233600 | 80 | 140 | 6.0 | 16.0 | 0.00 | 0.00 | 0.00 | 22 | 1011.0 |
| 20260906233500 | 80 | 103 | 5.0 | 16.0 | 0.00 | 0.00 | 0.00 | 22 | 1011.0 |
| 20260906233259 | 80 | 160 | 1.0 | 16.0 | 0.00 | 0.00 | 0.00 | 22 | 1011.0 |
| 20260906233200 | 80 | 128 | 10.0 | 15.0 | 0.00 | 0.00 | 0.00 | 22 | 1011.0 |
| 20260906233101 | 80 | 135 | 3.0 | 12.0 | 0.00 | 0.00 | 0.00 | 23 | 1010.8 |
| 20260906232859 | 80 | 190 | 0.0 | 12.0 | 0.00 | 0.00 | 0.00 | 22 | 1010.9 |
| 20260906232800 | 80 | 213 | 1.0 | 12.0 | 0.00 | 0.00 | 0.00 | 22 | 1010.9 |
| 20260906232659 | 80 | 140 | 5.0 | 12.0 | 0.00 | 0.00 | 0.00 | 22 | 1010.9 |
| 20260906232600 | 80 | 135 | 6.0 | 12.0 | 0.00 | 0.00 | 0.00 | 23 | 1010.9 |
| 20260906232501 | 80 | 149 | 2.0 | 12.0 | 0.00 | 0.00 | 0.00 | 23 | 1010.9 |
| 20260906232359 | 80 | 128 | 4.0 | 12.0 | 0.00 | 0.00 | 0.00 | 23 | 1011.0 |
| 20260906232259 | 80 | 197 | 2.0 | 12.0 | 0.00 | 0.00 | 0.00 | 23 | 1010.9 |
| 20260906232159 | 80 | 109 | 7.0 | 8.0 | 0.00 | 0.00 | 0.00 | 23 | 1011.0 |
| 20260906232100 | 80 | 109 | 3.0 | 9.0 | 0.00 | 0.00 | 0.00 | 25 | 1011.0 |
| 20260906231900 | 80 | 162 | 0.0 | 9.0 | 0.00 | 0.00 | 0.00 | 25 | 1011.0 |
| 20260906231759 | 80 | 132 | 3.0 | 9.0 | 0.00 | 0.00 | 0.00 | 25 | 1011.0 |
| 20260906231659 | 80 | 81 | 3.0 | 9.0 | 0.00 | 0.00 | 0.00 | 23 | 1011.0 |
| 20260906231600 | 80 | 212 | 3.0 | 9.0 | 0.00 | 0.00 | 0.00 | 24 | 1011.0 |
| 20260906231500 | 80 | 101 | 1.0 | 6.0 | 0.00 | 0.00 | 0.00 | 24 | 1011.0 |
| 20260906231359 | 80 | 128 | 6.0 | 7.0 | 0.00 | 0.00 | 0.00 | 25 | 1011.1 |
| 20260906231159 | 80 | 153 | 0.0 | 5.0 | 0.00 | 0.00 | 0.00 | 24 | 1011.1 |
| 20260906231059 | 80 | 67 | 2.0 | 5.0 | 0.00 | 0.00 | 0.00 | 24 | 1011.1 |
| 20260906231000 | 80 | 142 | 3.0 | 5.0 | 0.00 | 0.00 | 0.00 | 24 | 1011.1 |
| 20260906230900 | 80 | 180 | 3.0 | 5.0 | 0.00 | 0.00 | 0.00 | 24 | 1011.1 |
| 20260906230800 | 80 | 111 | 3.0 | 6.0 | 0.00 | 0.00 | 0.00 | 25 | 1011.1 |
| 20260906230500 | 80 | 142 | 2.0 | 7.0 | 0.00 | 0.00 | 0.00 | 24 | 1011.2 |
| 20260906230400 | 80 | 144 | 3.0 | 7.0 | 0.00 | 0.00 | 0.00 | 23 | 1011.2 |
| 20260906230159 | 80 | 111 | 0.0 | 7.0 | 0.00 | 0.00 | 0.00 | 24 | 1011.2 |
| 20260906230100 | 80 | 277 | 1.0 | 7.0 | 0.00 | 0.00 | 0.00 | 24 | 1011.2 |
| 20260906230004 | 80 | 163 | 2.0 | 7.0 | 0.00 | 0.00 | 0.00 | 25 | 1011.2 |
| 20260906225900 | 80 | 216 | 7.0 | 7.0 | 0.00 | 0.00 | 0.00 | 24 | 1011.3 |
| 20260906225801 | 80 | 179 | 0.0 | 7.0 | 0.00 | 0.00 | 0.00 | 24 | 1011.3 |
| 20260906225700 | 80 | 182 | 2.0 | 7.0 | 0.00 | 0.00 | 0.00 | 24 | 1011.3 |
| 20260906225501 | 80 | 248 | 2.0 | 9.0 | 0.00 | 0.00 | 0.00 | 22 | 1011.3 |
| 20260906225400 | 80 | 191 | 3.0 | 9.0 | 0.00 | 0.00 | 0.00 | 24 | 1011.3 |
| 20260906225300 | 80 | 151 | 2.0 | 9.0 | 0.00 | 0.00 | 0.00 | 23 | 1011.3 |
| 20260906225200 | 80 | 40 | 3.0 | 9.0 | 0.00 | 0.00 | 0.00 | 22 | 1011.3 |
| 20260906225100 | 80 | 106 | 3.0 | 9.0 | 0.00 | 0.00 | 0.00 | 24 | 1011.4 |
| 20260906225000 | 80 | 175 | 1.0 | 9.0 | 0.00 | 0.00 | 0.00 | 22 | 1011.4 |
| 20260906224859 | 80 | 192 | 2.0 | 9.0 | 0.00 | 0.00 | 0.00 | 22 | 1011.4 |
| 20260906224800 | 80 | 180 | 2.0 | 9.0 | 0.00 | 0.00 | 0.00 | 22 | 1011.5 |
| 20260906224659 | 80 | 146 | 7.0 | 10.0 | 0.00 | 0.00 | 0.00 | 22 | 1011.4 |
| 20260906224600 | 80 | 167 | 4.0 | 12.0 | 0.00 | 0.00 | 0.00 | 22 | 1011.4 |
| 20260906224500 | 81 | 89 | 6.0 | 12.0 | 0.00 | 0.00 | 0.00 | 23 | 1011.4 |
| 20260906224400 | 81 | 165 | 1.0 | 12.0 | 0.00 | 0.00 | 0.00 | 22 | 1011.4 |
| 20260906224300 | 81 | 94 | 1.0 | 12.0 | 0.00 | 0.00 | 0.00 | 22 | 1011.4 |
| 20260906224159 | 81 | 126 | 5.0 | 12.0 | 0.00 | 0.00 | 0.00 | 22 | 1011.4 |
| 20260906224059 | 81 | 164 | 8.0 | 12.0 | 0.00 | 0.00 | 0.00 | 22 | 1011.4 |
| 20260906224000 | 81 | 75 | 3.0 | 12.0 | 0.00 | 0.00 | 0.00 | 22 | 1011.4 |
| 20260906223900 | 81 | 140 | 7.0 | 12.0 | 0.00 | 0.00 | 0.00 | 23 | 1011.4 |
| 20260906223759 | 81 | 150 | 6.0 | 12.0 | 0.00 | 0.00 | 0.00 | 23 | 1011.4 |
| 20260906223659 | 81 | 133 | 4.0 | 10.0 | 0.00 | 0.00 | 0.00 | 22 | 1011.4 |
| 20260906223559 | 81 | 198 | 7.0 | 10.0 | 0.00 | 0.00 | 0.00 | 22 | 1011.4 |
| 20260906223500 | 81 | 215 | 4.0 | 9.0 | 0.00 | 0.00 | 0.00 | 22 | 1011.3 |
| 20260906223359 | 81 | 105 | 4.0 | 12.0 | 0.00 | 0.00 | 0.00 | 23 | 1011.4 |
| 20260906223259 | 81 | 110 | 1.0 | 12.0 | 0.00 | 0.00 | 0.00 | 22 | 1011.4 |
| 20260906223059 | 81 | 159 | 3.0 | 12.0 | 0.00 | 0.00 | 0.00 | 22 | 1011.5 |
| 20260906223000 | 81 | 195 | 3.0 | 12.0 | 0.00 | 0.00 | 0.00 | 23 | 1011.5 |
| 20260906222859 | 81 | 159 | 3.0 | 12.0 | 0.00 | 0.00 | 0.00 | 22 | 1011.5 |
| 20260906222800 | 81 | 138 | 6.0 | 12.0 | 0.00 | 0.00 | 0.00 | 22 | 1011.5 |
| 20260906222659 | 81 | 134 | 8.0 | 12.0 | 0.00 | 0.00 | 0.00 | 22 | 1011.5 |
| 20260906222559 | 81 | 173 | 5.0 | 12.0 | 0.00 | 0.00 | 0.00 | 22 | 1011.5 |
| 20260906222359 | 81 | 127 | 4.0 | 13.0 | 0.00 | 0.00 | 0.00 | 22 | 1011.6 |
| 20260906222259 | 81 | 78 | 4.0 | 13.0 | 0.00 | 0.00 | 0.00 | 23 | 1011.5 |
| 20260906222059 | 81 | 144 | 4.0 | 13.0 | 0.00 | 0.00 | 0.00 | 22 | 1011.5 |
| 20260906221859 | 81 | 217 | 3.0 | 13.0 | 0.00 | 0.00 | 0.00 | 21 | 1011.6 |
| 20260906221758 | 81 | 190 | 5.0 | 13.0 | 0.00 | 0.00 | 0.00 | 21 | 1011.6 |
| 20260906221700 | 81 | 219 | 2.0 | 11.0 | 0.00 | 0.00 | 0.00 | 23 | 1011.6 |
| 20260906221559 | 81 | 182 | 1.0 | 11.0 | 0.00 | 0.00 | 0.00 | 22 | 1011.7 |
| 20260906221459 | 81 | 119 | 2.0 | 11.0 | 0.00 | 0.00 | 0.00 | 23 | 1011.6 |
| 20260906221359 | 81 | 187 | 1.0 | 11.0 | 0.00 | 0.00 | 0.00 | 22 | 1011.7 |
| 20260906221259 | 81 | 123 | 3.0 | 11.0 | 0.00 | 0.00 | 0.00 | 22 | 1011.7 |
| 20260906221159 | 81 | 80 | 2.0 | 12.0 | 0.00 | 0.00 | 0.00 | 24 | 1011.7 |
| 20260906221100 | 81 | 157 | 2.0 | 12.0 | 0.00 | 0.00 | 0.00 | 23 | 1011.8 |
| 20260906221000 | 81 | 140 | 3.0 | 12.0 | 0.00 | 0.00 | 0.00 | 21 | 1011.8 |
| 20260906220900 | 81 | 186 | 8.0 | 12.0 | 0.00 | 0.00 | 0.00 | 22 | 1011.8 |
| 20260906220658 | 81 | 177 | 2.0 | 12.0 | 0.00 | 0.00 | 0.00 | 22 | 1011.8 |
| 20260906220559 | 81 | 140 | 4.0 | 12.0 | 0.00 | 0.00 | 0.00 | 21 | 1011.8 |
| 20260906220501 | 81 | 199 | 5.0 | 12.0 | 0.00 | 0.00 | 0.00 | 22 | 1011.7 |
| 20260906220359 | 81 | 185 | 5.0 | 12.0 | 0.00 | 0.00 | 0.00 | 23 | 1011.8 |
| 20260906220259 | 81 | 178 | 10.0 | 11.0 | 0.00 | 0.00 | 0.00 | 22 | 1011.8 |
| 20260906220200 | 81 | 236 | 2.0 | 10.0 | 0.00 | 0.00 | 0.00 | 22 | 1011.8 |
| 20260906215859 | 81 | 205 | 5.0 | 10.0 | 0.00 | 0.00 | 0.00 | 25 | 1011.9 |
| 20260906215759 | 81 | 242 | 2.0 | 10.0 | 0.00 | 0.00 | 0.00 | 24 | 1011.9 |
| 20260906215701 | 81 | 193 | 3.0 | 10.0 | 0.00 | 0.00 | 0.00 | 22 | 1011.9 |
| 20260906215559 | 81 | 175 | 2.0 | 14.0 | 0.00 | 0.00 | 0.00 | 22 | 1011.8 |
| 20260906215502 | 81 | 167 | 3.0 | 14.0 | 0.00 | 0.00 | 0.00 | 23 | 1011.8 |
| 20260906215358 | 81 | 164 | 2.0 | 14.0 | 0.00 | 0.00 | 0.00 | 23 | 1011.9 |
| 20260906215200 | 81 | 208 | 6.0 | 14.0 | 0.00 | 0.00 | 0.00 | 22 | 1011.9 |
| 20260906215059 | 81 | 116 | 3.0 | 14.0 | 0.00 | 0.00 | 0.00 | 22 | 1011.9 |
| 20260906215000 | 81 | 172 | 2.0 | 14.0 | 0.00 | 0.00 | 0.00 | 23 | 1011.8 |
| 20260906214859 | 81 | 205 | 3.0 | 14.0 | 0.00 | 0.00 | 0.00 | 23 | 1011.9 |
| 20260906214800 | 81 | 244 | 3.0 | 14.0 | 0.00 | 0.00 | 0.00 | 22 | 1011.8 |
| 20260906214659 | 81 | 234 | 3.0 | 12.0 | 0.00 | 0.00 | 0.00 | 22 | 1011.8 |
| 20260906214559 | 81 | 192 | 4.0 | 12.0 | 0.00 | 0.00 | 0.00 | 23 | 1011.9 |
| 20260906214500 | 81 | 216 | 6.0 | 12.0 | 0.00 | 0.00 | 0.00 | 23 | 1011.8 |
| 20260906214359 | 81 | 220 | 5.0 | 12.0 | 0.00 | 0.00 | 0.00 | 23 | 1011.7 |
| 20260906214259 | 81 | 198 | 3.0 | 12.0 | 0.00 | 0.00 | 0.00 | 22 | 1011.8 |
| 20260906214159 | 81 | 206 | 2.0 | 12.0 | 0.00 | 0.00 | 0.00 | 22 | 1011.8 |
| 20260906214059 | 81 | 212 | 5.0 | 12.0 | 0.00 | 0.00 | 0.00 | 22 | 1011.8 |
| 20260906213959 | 81 | 251 | 3.0 | 13.0 | 0.00 | 0.00 | 0.00 | 22 | 1011.8 |
| 20260906213859 | 81 | 219 | 5.0 | 13.0 | 0.00 | 0.00 | 0.00 | 22 | 1011.8 |
| 20260906213800 | 81 | 228 | 4.0 | 13.0 | 0.00 | 0.00 | 0.00 | 22 | 1011.7 |
| 20260906213559 | 81 | 221 | 2.0 | 13.0 | 0.00 | 0.00 | 0.00 | 22 | 1011.8 |
| 20260906213500 | 81 | 191 | 6.0 | 13.0 | 0.00 | 0.00 | 0.00 | 23 | 1011.7 |
| 20260906213359 | 81 | 210 | 4.0 | 13.0 | 0.00 | 0.00 | 0.00 | 21 | 1011.6 |
| 20260906213310 | 81 | 213 | 3.0 | 13.0 | 0.00 | 0.00 | 0.00 | 21 | 1011.6 |
| 20260906213059 | 82 | 230 | 9.0 | 13.0 | 0.00 | 0.00 | 0.00 | 21 | 1011.7 |
| 20260906213000 | 82 | 126 | 11.0 | 13.0 | 0.00 | 0.00 | 0.00 | 21 | 1011.8 |
| 20260906212859 | 82 | 224 | 6.0 | 11.0 | 0.00 | 0.00 | 0.00 | 21 | 1011.7 |
| 20260906212800 | 82 | 238 | 4.0 | 11.0 | 0.00 | 0.00 | 0.00 | 22 | 1011.7 |
| 20260906212559 | 82 | 171 | 5.0 | 11.0 | 0.00 | 0.00 | 0.00 | 21 | 1011.7 |
| 20260906212500 | 82 | 219 | 10.0 | 11.0 | 0.00 | 0.00 | 0.00 | 24 | 1011.6 |
| 20260906212400 | 82 | 29 | 3.0 | 9.0 | 0.00 | 0.00 | 0.00 | 23 | 1011.7 |
| 20260906212300 | 82 | 167 | 3.0 | 11.0 | 0.00 | 0.00 | 0.00 | 22 | 1011.7 |
| 20260906212200 | 82 | 235 | 3.0 | 11.0 | 0.00 | 0.00 | 0.00 | 21 | 1011.7 |
| 20260906212059 | 82 | 121 | 4.0 | 11.0 | 0.00 | 0.00 | 0.00 | 22 | 1011.7 |
| 20260906212000 | 82 | 160 | 3.0 | 11.0 | 0.00 | 0.00 | 0.00 | 22 | 1011.7 |
| 20260906211759 | 82 | 211 | 5.0 | 11.0 | 0.00 | 0.00 | 0.00 | 23 | 1011.7 |
| 20260906211500 | 82 | 180 | 2.0 | 13.0 | 0.00 | 0.00 | 0.00 | 20 | 1011.8 |
| 20260906211400 | 82 | 207 | 6.0 | 13.0 | 0.00 | 0.00 | 0.00 | 21 | 1011.9 |
| 20260906211259 | 82 | 261 | 8.0 | 13.0 | 0.00 | 0.00 | 0.00 | 23 | 1011.9 |
| 20260906211059 | 82 | 181 | 4.0 | 13.0 | 0.00 | 0.00 | 0.00 | 23 | 1011.9 |
| 20260906211000 | 82 | 162 | 1.0 | 13.0 | 0.00 | 0.00 | 0.00 | 22 | 1011.8 |
| 20260906210859 | 82 | 231 | 1.0 | 13.0 | 0.00 | 0.00 | 0.00 | 22 | 1011.8 |
| 20260906210459 | 82 | 137 | 5.0 | 11.0 | 0.00 | 0.00 | 0.00 | 24 | 1011.8 |
| 20260906210359 | 82 | 190 | 1.0 | 11.0 | 0.00 | 0.00 | 0.00 | 21 | 1011.9 |
| 20260906210158 | 82 | 180 | 4.0 | 11.0 | 0.00 | 0.00 | 0.00 | 23 | 1011.9 |
| 20260906210003 | 82 | 161 | 2.0 | 11.0 | 0.00 | 0.00 | 0.00 | 22 | 1011.9 |
| 20260906205800 | 82 | 178 | 2.0 | 11.0 | 0.00 | 0.00 | 0.00 | 22 | 1012.0 |
| 20260906205659 | 82 | 153 | 9.0 | 15.0 | 0.00 | 0.00 | 0.00 | 23 | 1012.1 |
| 20260906205600 | 82 | 228 | 6.0 | 15.0 | 0.00 | 0.00 | 0.00 | 21 | 1012.0 |
| 20260906205501 | 82 | 63 | 7.0 | 15.0 | 0.00 | 0.00 | 0.00 | 20 | 1012.0 |
| 20260906205359 | 82 | 92 | 2.0 | 15.0 | 0.00 | 0.00 | 0.00 | 20 | 1012.1 |
| 20260906205305 | 82 | 115 | 11.0 | 15.0 | 0.00 | 0.00 | 0.00 | 21 | 1012.1 |
| 20260906205159 | 82 | 264 | 7.0 | 15.0 | 0.00 | 0.00 | 0.00 | 21 | 1012.0 |
| 20260906205059 | 82 | 169 | 4.0 | 15.0 | 0.00 | 0.00 | 0.00 | 21 | 1012.1 |
| 20260906204959 | 82 | 157 | 5.0 | 15.0 | 0.00 | 0.00 | 0.00 | 22 | 1012.1 |
| 20260906204859 | 82 | 202 | 4.0 | 15.0 | 0.00 | 0.00 | 0.00 | 22 | 1012.0 |
| 20260906204759 | 82 | 198 | 4.0 | 15.0 | 0.00 | 0.00 | 0.00 | 20 | 1012.0 |
| 20260906204558 | 82 | 179 | 8.0 | 10.0 | 0.00 | 0.00 | 0.00 | 22 | 1012.0 |
| 20260906204459 | 82 | 217 | 5.0 | 10.0 | 0.00 | 0.00 | 0.00 | 20 | 1011.9 |
| 20260906204400 | 82 | 161 | 5.0 | 13.0 | 0.00 | 0.00 | 0.00 | 20 | 1012.0 |
| 20260906204259 | 82 | 167 | 4.0 | 13.0 | 0.00 | 0.00 | 0.00 | 20 | 1012.0 |
| 20260906204159 | 82 | 130 | 3.0 | 13.0 | 0.00 | 0.00 | 0.00 | 21 | 1012.0 |
| 20260906204059 | 82 | 160 | 3.0 | 13.0 | 0.00 | 0.00 | 0.00 | 21 | 1012.0 |
| 20260906204000 | 82 | 190 | 3.0 | 13.0 | 0.00 | 0.00 | 0.00 | 23 | 1012.1 |
| 20260906203859 | 82 | 202 | 5.0 | 13.0 | 0.00 | 0.00 | 0.00 | 23 | 1012.2 |
| 20260906203759 | 82 | 198 | 5.0 | 13.0 | 0.00 | 0.00 | 0.00 | 24 | 1012.2 |
| 20260906203659 | 82 | 231 | 4.0 | 13.0 | 0.00 | 0.00 | 0.00 | 21 | 1012.2 |
| 20260906203559 | 82 | 192 | 7.0 | 13.0 | 0.00 | 0.00 | 0.00 | 21 | 1012.1 |
| 20260906203500 | 82 | 225 | 6.0 | 13.0 | 0.00 | 0.00 | 0.00 | 22 | 1012.2 |
| 20260906203359 | 82 | 186 | 4.0 | 17.0 | 0.00 | 0.00 | 0.00 | 22 | 1012.2 |
| 20260906203300 | 82 | 212 | 8.0 | 17.0 | 0.00 | 0.00 | 0.00 | 22 | 1012.3 |
| 20260906203158 | 82 | 208 | 8.0 | 17.0 | 0.00 | 0.00 | 0.00 | 22 | 1012.2 |
| 20260906203058 | 82 | 240 | 8.0 | 17.0 | 0.00 | 0.00 | 0.00 | 22 | 1012.2 |
| 20260906202959 | 82 | 171 | 3.0 | 17.0 | 0.00 | 0.00 | 0.00 | 22 | 1012.2 |
| 20260906202859 | 82 | 171 | 11.0 | 17.0 | 0.00 | 0.00 | 0.00 | 20 | 1012.2 |
| 20260906202600 | 82 | 192 | 6.0 | 17.0 | 0.00 | 0.00 | 0.00 | 21 | 1012.2 |
| 20260906202359 | 82 | 300 | 3.0 | 12.0 | 0.00 | 0.00 | 0.00 | 20 | 1012.2 |
| 20260906202259 | 82 | 115 | 2.0 | 12.0 | 0.00 | 0.00 | 0.00 | 20 | 1012.3 |
| 20260906202159 | 82 | 168 | 5.0 | 12.0 | 0.00 | 0.00 | 0.00 | 20 | 1012.3 |
| 20260906202059 | 82 | 153 | 0.0 | 17.0 | 0.00 | 0.00 | 0.00 | 19 | 1012.3 |
| 20260906202000 | 82 | 142 | 3.0 | 17.0 | 0.00 | 0.00 | 0.00 | 19 | 1012.3 |
| 20260906201900 | 83 | 117 | 7.0 | 17.0 | 0.00 | 0.00 | 0.00 | 19 | 1012.4 |
| 20260906201759 | 83 | 315 | 2.0 | 17.0 | 0.00 | 0.00 | 0.00 | 21 | 1012.5 |
| 20260906201700 | 83 | 117 | 4.0 | 17.0 | 0.00 | 0.00 | 0.00 | 20 | 1012.5 |
| 20260906201559 | 83 | 215 | 5.0 | 17.0 | 0.00 | 0.00 | 0.00 | 20 | 1012.5 |
| 20260906201459 | 83 | 158 | 7.0 | 17.0 | 0.00 | 0.00 | 0.00 | 20 | 1012.5 |
| 20260906201359 | 83 | 196 | 5.0 | 17.0 | 0.00 | 0.00 | 0.00 | 21 | 1012.4 |
| 20260906201259 | 83 | 196 | 5.0 | 17.0 | 0.00 | 0.00 | 0.00 | 21 | 1012.4 |
| 20260906201159 | 83 | 194 | 15.0 | 16.0 | 0.00 | 0.00 | 0.00 | 21 | 1012.4 |
| 20260906201100 | 83 | 209 | 5.0 | 12.0 | 0.00 | 0.00 | 0.00 | 20 | 1012.5 |
| 20260906201000 | 83 | 204 | 6.0 | 12.0 | 0.00 | 0.00 | 0.00 | 20 | 1012.5 |
| 20260906200859 | 83 | 237 | 6.0 | 12.0 | 0.00 | 0.00 | 0.00 | 21 | 1012.6 |
| 20260906200800 | 83 | 202 | 5.0 | 12.0 | 0.00 | 0.00 | 0.00 | 20 | 1012.5 |
| 20260906200659 | 83 | 119 | 8.0 | 12.0 | 0.00 | 0.00 | 0.00 | 19 | 1012.6 |
| 20260906200300 | 83 | 251 | 2.0 | 10.0 | 0.00 | 0.00 | 0.00 | 21 | 1012.4 |
| 20260906200200 | 83 | 178 | 3.0 | 11.0 | 0.00 | 0.00 | 0.00 | 20 | 1012.5 |
| 20260906200059 | 83 | 227 | 8.0 | 11.0 | 0.00 | 0.00 | 0.00 | 20 | 1012.4 |
| 20260906195759 | 82 | 196 | 7.0 | 11.0 | 0.00 | 0.00 | 0.00 | 19 | 1012.6 |
| 20260906195559 | 82 | 150 | 3.0 | 11.0 | 0.00 | 0.00 | 0.00 | 20 | 1012.6 |
| 20260906195501 | 82 | 232 | 3.0 | 11.0 | 0.00 | 0.00 | 0.00 | 20 | 1012.6 |
| 20260906195359 | 81 | 173 | 6.0 | 11.0 | 0.00 | 0.00 | 0.00 | 20 | 1012.6 |
| 20260906195201 | 82 | 223 | 8.0 | 14.0 | 0.00 | 0.00 | 0.00 | 20 | 1012.7 |
| 20260906195059 | 82 | 149 | 5.0 | 14.0 | 0.00 | 0.00 | 0.00 | 20 | 1012.7 |
| 20260906194859 | 82 | 167 | 6.0 | 16.0 | 0.00 | 0.00 | 0.00 | 19 | 1012.7 |
| 20260906194759 | 82 | 120 | 4.0 | 16.0 | 0.00 | 0.00 | 0.00 | 21 | 1012.7 |
| 20260906194659 | 82 | 189 | 6.0 | 16.0 | 0.00 | 0.00 | 0.00 | 20 | 1012.7 |
| 20260906194559 | 82 | 138 | 4.0 | 16.0 | 0.00 | 0.00 | 0.00 | 20 | 1012.7 |
| 20260906194459 | 82 | 146 | 8.0 | 16.0 | 0.00 | 0.00 | 0.00 | 20 | 1012.7 |
| 20260906194359 | 82 | 122 | 5.0 | 16.0 | 0.00 | 0.00 | 0.00 | 20 | 1012.7 |
| 20260906194259 | 82 | 215 | 14.0 | 16.0 | 0.00 | 0.00 | 0.00 | 20 | 1012.6 |
| 20260906194158 | 83 | 192 | 6.0 | 16.0 | 0.00 | 0.00 | 0.00 | 21 | 1012.7 |
| 20260906194059 | 83 | 208 | 8.0 | 14.0 | 0.00 | 0.00 | 0.00 | 20 | 1012.7 |
| 20260906193859 | 83 | 191 | 3.0 | 9.0 | 0.00 | 0.00 | 0.00 | 19 | 1012.9 |
| 20260906193758 | 83 | 190 | 7.0 | 8.0 | 0.00 | 0.00 | 0.00 | 22 | 1012.8 |
| 20260906193659 | 83 | 182 | 5.0 | 8.0 | 0.00 | 0.00 | 0.00 | 22 | 1012.8 |
| 20260906193459 | 82 | 179 | 1.0 | 12.0 | 0.00 | 0.00 | 0.00 | 22 | 1012.9 |
| 20260906193359 | 82 | 205 | 4.0 | 12.0 | 0.00 | 0.00 | 0.00 | 24 | 1012.8 |
| 20260906193259 | 82 | 220 | 3.0 | 12.0 | 0.00 | 0.00 | 0.00 | 22 | 1012.8 |
| 20260906193159 | 82 | 205 | 4.0 | 12.0 | 0.00 | 0.00 | 0.00 | 23 | 1012.8 |
| 20260906193059 | 82 | 155 | 2.0 | 12.0 | 0.00 | 0.00 | 0.00 | 20 | 1012.8 |
| 20260906192959 | 82 | 172 | 2.0 | 12.0 | 0.00 | 0.00 | 0.00 | 21 | 1012.8 |
| 20260906192859 | 82 | 193 | 2.0 | 12.0 | 0.00 | 0.00 | 0.00 | 23 | 1012.8 |
| 20260906192759 | 82 | 249 | 5.0 | 12.0 | 0.00 | 0.00 | 0.00 | 21 | 1012.8 |
| 20260906192700 | 81 | 132 | 10.0 | 10.0 | 0.00 | 0.00 | 0.00 | 22 | 1012.8 |
| 20260906192600 | 81 | 131 | 7.0 | 9.0 | 0.00 | 0.00 | 0.00 | 20 | 1012.8 |
| 20260906192500 | 81 | 108 | 2.0 | 10.0 | 0.00 | 0.00 | 0.00 | 22 | 1012.8 |
| 20260906192359 | 81 | 134 | 6.0 | 10.0 | 0.00 | 0.00 | 0.00 | 21 | 1012.9 |
| 20260906192300 | 81 | 105 | 3.0 | 10.0 | 0.00 | 0.00 | 0.00 | 20 | 1012.9 |
| 20260906192059 | 81 | 175 | 2.0 | 11.0 | 0.00 | 0.00 | 0.00 | 22 | 1012.9 |
| 20260906191859 | 81 | 200 | 3.0 | 12.0 | 0.00 | 0.00 | 0.00 | 21 | 1012.9 |
| 20260906191800 | 81 | 231 | 1.0 | 12.0 | 0.00 | 0.00 | 0.00 | 22 | 1013.0 |
| 20260906191659 | 81 | 232 | 3.0 | 12.0 | 0.00 | 0.00 | 0.00 | 21 | 1013.0 |
| 20260906191459 | 81 | 240 | 2.0 | 12.0 | 0.00 | 0.00 | 0.00 | 22 | 1013.0 |
| 20260906191400 | 81 | 202 | 6.0 | 12.0 | 0.00 | 0.00 | 0.00 | 20 | 1013.0 |
| 20260906191159 | 81 | 253 | 7.0 | 12.0 | 0.00 | 0.00 | 0.00 | 20 | 1013.0 |
| 20260906191059 | 81 | 190 | 7.0 | 12.0 | 0.00 | 0.00 | 0.00 | 21 | 1013.1 |
| 20260906190959 | 81 | 248 | 8.0 | 11.0 | 0.00 | 0.00 | 0.00 | 21 | 1013.0 |
| 20260906190859 | 81 | 203 | 9.0 | 11.0 | 0.00 | 0.00 | 0.00 | 21 | 1013.1 |
| 20260906190800 | 82 | 217 | 4.0 | 8.0 | 0.00 | 0.00 | 0.00 | 20 | 1013.1 |
| 20260906190659 | 82 | 204 | 6.0 | 11.0 | 0.00 | 0.00 | 0.00 | 19 | 1013.1 |
| 20260906190559 | 81 | 184 | 5.0 | 14.0 | 0.00 | 0.00 | 0.00 | 20 | 1013.1 |
| 20260906190500 | 81 | 193 | 6.0 | 14.0 | 0.00 | 0.00 | 0.00 | 23 | 1013.2 |
| 20260906190359 | 81 | 168 | 5.0 | 14.0 | 0.00 | 0.00 | 0.00 | 21 | 1013.2 |
| 20260906190300 | 81 | 200 | 6.0 | 14.0 | 0.00 | 0.00 | 0.00 | 20 | 1013.2 |
| 20260906190200 | 81 | 225 | 3.0 | 14.0 | 0.00 | 0.00 | 0.00 | 21 | 1013.2 |
| 20260906190059 | 81 | 215 | 3.0 | 14.0 | 0.00 | 0.00 | 0.00 | 22 | 1013.3 |
| 20260906190002 | 81 | 182 | 6.0 | 14.0 | 0.00 | 0.00 | 0.00 | 22 | 1013.3 |
| 20260906185859 | 81 | 228 | 8.0 | 14.0 | 0.00 | 0.00 | 0.00 | 21 | 1013.3 |
| 20260906185800 | 81 | 169 | 6.0 | 14.0 | 0.00 | 0.00 | 0.00 | 19 | 1013.3 |
| 20260906185659 | 81 | 205 | 5.0 | 14.0 | 0.00 | 0.00 | 0.00 | 19 | 1013.3 |
| 20260906185600 | 81 | 227 | 4.0 | 14.0 | 0.00 | 0.00 | 0.00 | 21 | 1013.3 |
| 20260906185500 | 81 | 150 | 6.0 | 11.0 | 0.00 | 0.00 | 0.00 | 20 | 1013.4 |
| 20260906185359 | 81 | 219 | 5.0 | 11.0 | 0.00 | 0.00 | 0.00 | 21 | 1013.3 |
| 20260906185301 | 81 | 211 | 1.0 | 11.0 | 0.00 | 0.00 | 0.00 | 20 | 1013.4 |
| 20260906185200 | 81 | 221 | 6.0 | 11.0 | 0.00 | 0.00 | 0.00 | 21 | 1013.4 |
| 20260906185101 | 81 | 209 | 4.0 | 11.0 | 0.00 | 0.00 | 0.00 | 19 | 1013.4 |
| 20260906185000 | 81 | 192 | 7.0 | 11.0 | 0.00 | 0.00 | 0.00 | 20 | 1013.4 |
| 20260906184859 | 81 | 222 | 2.0 | 11.0 | 0.00 | 0.00 | 0.00 | 19 | 1013.4 |
| 20260906184801 | 81 | 271 | 8.0 | 11.0 | 0.00 | 0.00 | 0.00 | 21 | 1013.4 |
| 20260906184659 | 81 | 229 | 7.0 | 11.0 | 0.00 | 0.00 | 0.00 | 19 | 1013.3 |
| 20260906184559 | 81 | 164 | 4.0 | 11.0 | 0.00 | 0.00 | 0.00 | 20 | 1013.4 |
| 20260906184500 | 81 | 204 | 4.0 | 13.0 | 0.00 | 0.00 | 0.00 | 20 | 1013.4 |
| 20260906184259 | 81 | 177 | 4.0 | 13.0 | 0.00 | 0.00 | 0.00 | 21 | 1013.3 |
| 20260906184159 | 81 | 231 | 3.0 | 13.0 | 0.00 | 0.00 | 0.00 | 21 | 1013.3 |
| 20260906184100 | 81 | 225 | 4.0 | 13.0 | 0.00 | 0.00 | 0.00 | 21 | 1013.3 |
| 20260906183959 | 81 | 205 | 3.0 | 13.0 | 0.00 | 0.00 | 0.00 | 19 | 1013.3 |
| 20260906183859 | 81 | 93 | 8.0 | 13.0 | 0.00 | 0.00 | 0.00 | 19 | 1013.4 |
| 20260906183800 | 81 | 189 | 4.0 | 13.0 | 0.00 | 0.00 | 0.00 | 20 | 1013.4 |
| 20260906183659 | 81 | 153 | 5.0 | 13.0 | 0.00 | 0.00 | 0.00 | 22 | 1013.4 |
| 20260906183500 | 81 | 239 | 7.0 | 13.0 | 0.00 | 0.00 | 0.00 | 21 | 1013.5 |
| 20260906183359 | 81 | 208 | 7.0 | 13.0 | 0.00 | 0.00 | 0.00 | 19 | 1013.5 |
| 20260906183300 | 81 | 205 | 6.0 | 13.0 | 0.00 | 0.00 | 0.00 | 20 | 1013.5 |
| 20260906183159 | 81 | 205 | 3.0 | 13.0 | 0.00 | 0.00 | 0.00 | 20 | 1013.5 |
| 20260906183059 | 81 | 214 | 4.0 | 13.0 | 0.00 | 0.00 | 0.00 | 19 | 1013.5 |
| 20260906183000 | 81 | 182 | 2.0 | 13.0 | 0.00 | 0.00 | 0.00 | 21 | 1013.5 |
| 20260906182900 | 81 | 248 | 7.0 | 13.0 | 0.00 | 0.00 | 0.00 | 20 | 1013.6 |
| 20260906182759 | 81 | 216 | 3.0 | 13.0 | 0.00 | 0.00 | 0.00 | 18 | 1013.6 |
| 20260906182659 | 81 | 228 | 9.0 | 13.0 | 0.00 | 0.00 | 0.00 | 19 | 1013.6 |
| 20260906182559 | 81 | 198 | 3.0 | 13.0 | 0.00 | 0.00 | 0.00 | 19 | 1013.6 |
| 20260906182459 | 81 | 207 | 3.0 | 13.0 | 0.00 | 0.00 | 0.00 | 20 | 1013.6 |
| 20260906182359 | 81 | 211 | 7.0 | 13.0 | 0.00 | 0.00 | 0.00 | 19 | 1013.6 |
| 20260906182300 | 81 | 115 | 5.0 | 13.0 | 0.00 | 0.00 | 0.00 | 20 | 1013.6 |
| 20260906182159 | 80 | 203 | 7.0 | 10.0 | 0.00 | 0.00 | 0.00 | 21 | 1013.5 |
| 20260906182059 | 80 | 240 | 2.0 | 10.0 | 0.00 | 0.00 | 0.00 | 23 | 1013.5 |
| 20260906182000 | 80 | 225 | 4.0 | 11.0 | 0.00 | 0.00 | 0.00 | 22 | 1013.5 |
| 20260906181900 | 80 | 217 | 6.0 | 11.0 | 0.00 | 0.00 | 0.00 | 22 | 1013.6 |
| 20260906181500 | 80 | 186 | 7.0 | 11.0 | 0.00 | 0.00 | 0.00 | 20 | 1013.6 |
| 20260906181359 | 80 | 146 | 3.0 | 11.0 | 0.00 | 0.00 | 0.00 | 19 | 1013.6 |
| 20260906181300 | 80 | 207 | 8.0 | 11.0 | 0.00 | 0.00 | 0.00 | 21 | 1013.7 |
| 20260906181159 | 80 | 209 | 5.0 | 11.0 | 0.00 | 0.00 | 0.00 | 21 | 1013.7 |
| 20260906181000 | 80 | 218 | 6.0 | 10.0 | 0.00 | 0.00 | 0.00 | 20 | 1013.8 |
| 20260906180859 | 80 | 207 | 7.0 | 10.0 | 0.00 | 0.00 | 0.00 | 21 | 1013.8 |
| 20260906180759 | 80 | 215 | 8.0 | 10.0 | 0.00 | 0.00 | 0.00 | 19 | 1013.8 |
| 20260906180700 | 80 | 213 | 6.0 | 10.0 | 0.00 | 0.00 | 0.00 | 21 | 1013.8 |
| 20260906180559 | 80 | 248 | 6.0 | 10.0 | 0.00 | 0.00 | 0.00 | 20 | 1013.8 |
| 20260906180459 | 80 | 136 | 3.0 | 10.0 | 0.00 | 0.00 | 0.00 | 22 | 1013.8 |
| 20260906180259 | 80 | 202 | 7.0 | 10.0 | 0.00 | 0.00 | 0.00 | 19 | 1013.8 |
| 20260906180200 | 80 | 198 | 2.0 | 10.0 | 0.00 | 0.00 | 0.00 | 19 | 1013.8 |
| 20260906180059 | 80 | 217 | 5.0 | 10.0 | 0.00 | 0.00 | 0.00 | 20 | 1013.8 |
| 20260906180004 | 80 | 209 | 6.0 | 10.0 | 0.00 | 0.00 | 0.00 | 18 | 1013.8 |
| 20260906175859 | 80 | 181 | 7.0 | 11.0 | 0.00 | 0.00 | 0.00 | 18 | 1013.9 |
| 20260906175800 | 80 | 200 | 5.0 | 11.0 | 0.00 | 0.00 | 0.00 | 18 | 1013.9 |
| 20260906175659 | 80 | 230 | 4.0 | 11.0 | 0.00 | 0.00 | 0.00 | 20 | 1013.9 |
| 20260906175559 | 80 | 192 | 6.0 | 11.0 | 0.00 | 0.00 | 0.00 | 21 | 1013.9 |
| 20260906175459 | 80 | 187 | 8.0 | 10.0 | 0.00 | 0.00 | 0.00 | 19 | 1013.8 |
| 20260906175401 | 80 | 250 | 3.0 | 9.0 | 0.00 | 0.00 | 0.00 | 20 | 1013.9 |
| 20260906175300 | 80 | 221 | 1.0 | 9.0 | 0.00 | 0.00 | 0.00 | 19 | 1014.0 |
| 20260906175059 | 80 | 188 | 7.0 | 9.0 | 0.00 | 0.00 | 0.00 | 20 | 1014.0 |
| 20260906175000 | 80 | 218 | 6.0 | 9.0 | 0.00 | 0.00 | 0.00 | 20 | 1014.1 |
| 20260906174858 | 80 | 204 | 3.0 | 7.0 | 0.00 | 0.00 | 0.00 | 21 | 1014.0 |
| 20260906174759 | 80 | 216 | 3.0 | 7.0 | 0.00 | 0.00 | 0.00 | 22 | 1014.0 |
| 20260906174659 | 80 | 211 | 5.0 | 7.0 | 0.00 | 0.00 | 0.00 | 22 | 1014.0 |
| 20260906174559 | 80 | 214 | 3.0 | 7.0 | 0.00 | 0.00 | 0.00 | 19 | 1014.0 |
| 20260906174459 | 80 | 182 | 1.0 | 12.0 | 0.00 | 0.00 | 0.00 | 21 | 1014.0 |
| 20260906174258 | 80 | 196 | 3.0 | 12.0 | 0.00 | 0.00 | 0.00 | 21 | 1014.1 |
| 20260906174159 | 80 | 207 | 4.0 | 12.0 | 0.00 | 0.00 | 0.00 | 22 | 1014.0 |
| 20260906173959 | 80 | 200 | 4.0 | 12.0 | 0.00 | 0.00 | 0.00 | 22 | 1014.1 |
| 20260906173859 | 80 | 228 | 3.0 | 12.0 | 0.00 | 0.00 | 0.00 | 22 | 1014.1 |
| 20260906173759 | 80 | 200 | 3.0 | 12.0 | 0.00 | 0.00 | 0.00 | 20 | 1014.1 |
| 20260906173659 | 80 | 172 | 6.0 | 12.0 | 0.00 | 0.00 | 0.00 | 19 | 1014.1 |
| 20260906173559 | 80 | 173 | 9.0 | 12.0 | 0.00 | 0.00 | 0.00 | 20 | 1014.0 |
| 20260906173500 | 80 | 217 | 3.0 | 9.0 | 0.00 | 0.00 | 0.00 | 20 | 1014.2 |
| 20260906173359 | 80 | 184 | 4.0 | 9.0 | 0.00 | 0.00 | 0.00 | 19 | 1014.2 |
| 20260906173159 | 80 | 196 | 3.0 | 10.0 | 0.00 | 0.00 | 0.00 | 19 | 1014.2 |
| 20260906172959 | 80 | 107 | 3.0 | 12.0 | 0.00 | 0.00 | 0.00 | 19 | 1014.3 |
| 20260906172858 | 80 | 248 | 1.0 | 12.0 | 0.00 | 0.00 | 0.00 | 19 | 1014.3 |
| 20260906172759 | 80 | 148 | 5.0 | 12.0 | 0.00 | 0.00 | 0.00 | 22 | 1014.4 |
| 20260906172559 | 80 | 215 | 7.0 | 12.0 | 0.00 | 0.00 | 0.00 | 20 | 1014.4 |
| 20260906172459 | 80 | 223 | 7.0 | 12.0 | 0.00 | 0.00 | 0.00 | 18 | 1014.3 |
| 20260906172359 | 80 | 140 | 4.0 | 12.0 | 0.00 | 0.00 | 0.00 | 19 | 1014.4 |
| 20260906172300 | 80 | 153 | 2.0 | 12.0 | 0.00 | 0.00 | 0.00 | 19 | 1014.4 |
| 20260906172200 | 80 | 217 | 7.0 | 10.0 | 0.00 | 0.00 | 0.00 | 20 | 1014.4 |
| 20260906172059 | 80 | 209 | 7.0 | 16.0 | 0.00 | 0.00 | 0.00 | 19 | 1014.3 |
| 20260906171959 | 80 | 190 | 3.0 | 16.0 | 0.00 | 0.00 | 0.00 | 20 | 1014.3 |
| 20260906171900 | 80 | 169 | 3.0 | 16.0 | 0.00 | 0.00 | 0.00 | 21 | 1014.3 |
| 20260906171800 | 79 | 262 | 1.0 | 16.0 | 0.00 | 0.00 | 0.00 | 20 | 1014.3 |
| 20260906171659 | 79 | 129 | 3.0 | 16.0 | 0.00 | 0.00 | 0.00 | 21 | 1014.3 |
| 20260906171500 | 79 | 173 | 5.0 | 16.0 | 0.00 | 0.00 | 0.00 | 20 | 1014.3 |
| 20260906171359 | 79 | 239 | 3.0 | 16.0 | 0.00 | 0.00 | 0.00 | 21 | 1014.3 |
| 20260906171300 | 79 | 172 | 1.0 | 16.0 | 0.00 | 0.00 | 0.00 | 20 | 1014.3 |
| 20260906171159 | 79 | 123 | 13.0 | 16.0 | 0.00 | 0.00 | 0.00 | 20 | 1014.4 |
| 20260906171059 | 79 | 170 | 2.0 | 14.0 | 0.00 | 0.00 | 0.00 | 19 | 1014.4 |
| 20260906171000 | 79 | 87 | 6.0 | 14.0 | 0.00 | 0.00 | 0.00 | 22 | 1014.4 |
| 20260906170759 | 79 | 100 | 5.0 | 14.0 | 0.00 | 0.00 | 0.00 | 20 | 1014.4 |
| 20260906170659 | 79 | 171 | 6.0 | 14.0 | 0.00 | 0.00 | 0.00 | 21 | 1014.5 |
| 20260906170559 | 79 | 154 | 2.0 | 14.0 | 0.00 | 0.00 | 0.00 | 20 | 1014.5 |
| 20260906170500 | 79 | 233 | 4.0 | 14.0 | 0.00 | 0.00 | 0.00 | 21 | 1014.4 |
| 20260906170259 | 79 | 220 | 12.0 | 14.0 | 0.00 | 0.00 | 0.00 | 22 | 1014.4 |
| 20260906170200 | 79 | 209 | 7.0 | 14.0 | 0.00 | 0.00 | 0.00 | 21 | 1014.5 |
| 20260906170059 | 79 | 158 | 7.0 | 14.0 | 0.00 | 0.00 | 0.00 | 20 | 1014.7 |
| 20260906170002 | 79 | 193 | 12.0 | 15.0 | 0.00 | 0.00 | 0.00 | 21 | 1014.5 |
| 20260906165859 | 79 | 171 | 4.0 | 11.0 | 0.00 | 0.00 | 0.00 | 20 | 1014.5 |
| 20260906165800 | 79 | 184 | 9.0 | 14.0 | 0.00 | 0.00 | 0.00 | 22 | 1014.6 |
| 20260906165659 | 79 | 178 | 2.0 | 14.0 | 0.00 | 0.00 | 0.00 | 21 | 1014.5 |
| 20260906165600 | 79 | 165 | 5.0 | 14.0 | 0.00 | 0.00 | 0.00 | 22 | 1014.6 |
| 20260906165500 | 79 | 208 | 4.0 | 14.0 | 0.00 | 0.00 | 0.00 | 21 | 1014.6 |
| 20260906165359 | 79 | 199 | 4.0 | 14.0 | 0.00 | 0.00 | 0.00 | 21 | 1014.6 |
| 20260906165258 | 79 | 199 | 5.0 | 14.0 | 0.00 | 0.00 | 0.00 | 21 | 1014.6 |
| 20260906165159 | 79 | 214 | 7.0 | 14.0 | 0.00 | 0.00 | 0.00 | 22 | 1014.6 |
| 20260906165059 | 79 | 161 | 4.0 | 14.0 | 0.00 | 0.00 | 0.00 | 22 | 1014.5 |
| 20260906164959 | 79 | 169 | 8.0 | 14.0 | 0.00 | 0.00 | 0.00 | 20 | 1014.6 |
| 20260906164859 | 79 | 213 | 12.0 | 12.0 | 0.00 | 0.00 | 0.00 | 21 | 1014.6 |
| 20260906164800 | 79 | 178 | 3.0 | 12.0 | 0.00 | 0.00 | 0.00 | 22 | 1014.5 |
| 20260906164659 | 79 | 121 | 9.0 | 13.0 | 0.00 | 0.00 | 0.00 | 22 | 1014.5 |
| 20260906164559 | 79 | 140 | 6.0 | 13.0 | 0.00 | 0.00 | 0.00 | 21 | 1014.6 |
| 20260906164500 | 79 | 206 | 4.0 | 13.0 | 0.00 | 0.00 | 0.00 | 22 | 1014.6 |
| 20260906164400 | 79 | 218 | 2.0 | 13.0 | 0.00 | 0.00 | 0.00 | 22 | 1014.7 |
| 20260906164301 | 79 | 184 | 3.0 | 13.0 | 0.00 | 0.00 | 0.00 | 22 | 1014.6 |
| 20260906164200 | 79 | 211 | 5.0 | 13.0 | 0.00 | 0.00 | 0.00 | 24 | 1014.6 |
| 20260906164059 | 79 | 167 | 2.0 | 13.0 | 0.00 | 0.00 | 0.00 | 21 | 1014.6 |
| 20260906164001 | 79 | 207 | 2.0 | 13.0 | 0.00 | 0.00 | 0.00 | 23 | 1014.6 |
| 20260906163758 | 79 | 227 | 9.0 | 13.0 | 0.00 | 0.00 | 0.00 | 21 | 1014.6 |
| 20260906163659 | 79 | 173 | 6.0 | 13.0 | 0.00 | 0.00 | 0.00 | 22 | 1014.7 |
| 20260906163559 | 79 | 204 | 8.0 | 13.0 | 0.00 | 0.00 | 0.00 | 21 | 1014.7 |
| 20260906163500 | 79 | 128 | 6.0 | 13.0 | 0.00 | 0.00 | 0.00 | 22 | 1014.7 |
| 20260906163359 | 79 | 130 | 3.0 | 11.0 | 0.00 | 0.00 | 0.00 | 22 | 1014.6 |
| 20260906163259 | 79 | 134 | 4.0 | 11.0 | 0.00 | 0.00 | 0.00 | 22 | 1014.6 |
| 20260906163059 | 79 | 165 | 3.0 | 8.0 | 0.00 | 0.00 | 0.00 | 22 | 1014.6 |
| 20260906162959 | 79 | 127 | 1.0 | 8.0 | 0.00 | 0.00 | 0.00 | 25 | 1014.6 |
| 20260906162859 | 79 | 186 | 1.0 | 8.0 | 0.00 | 0.00 | 0.00 | 21 | 1014.6 |
| 20260906162700 | 79 | 133 | 3.0 | 8.0 | 0.00 | 0.00 | 0.00 | 24 | 1014.6 |
| 20260906162559 | 79 | 210 | 4.0 | 8.0 | 0.00 | 0.00 | 0.00 | 22 | 1014.6 |
| 20260906162359 | 79 | 172 | 6.0 | 8.0 | 0.00 | 0.00 | 0.00 | 22 | 1014.6 |
| 20260906162259 | 79 | 163 | 3.0 | 9.0 | 0.00 | 0.00 | 0.00 | 24 | 1014.7 |
| 20260906162200 | 79 | 169 | 3.0 | 8.0 | 0.00 | 0.00 | 0.00 | 24 | 1014.6 |
| 20260906162100 | 79 | 212 | 3.0 | 6.0 | 0.00 | 0.00 | 0.00 | 24 | 1014.6 |
| 20260906162000 | 79 | 169 | 5.0 | 7.0 | 0.00 | 0.00 | 0.00 | 24 | 1014.6 |
| 20260906161859 | 79 | 184 | 1.0 | 7.0 | 0.00 | 0.00 | 0.00 | 24 | 1014.6 |
| 20260906161758 | 79 | 208 | 3.0 | 7.0 | 0.00 | 0.00 | 0.00 | 25 | 1014.6 |
| 20260906161659 | 79 | 202 | 3.0 | 7.0 | 0.00 | 0.00 | 0.00 | 21 | 1014.6 |
| 20260906161600 | 79 | 199 | 4.0 | 7.0 | 0.00 | 0.00 | 0.00 | 22 | 1014.7 |
| 20260906161500 | 79 | 186 | 2.0 | 7.0 | 0.00 | 0.00 | 0.00 | 22 | 1014.6 |
| 20260906161259 | 79 | 120 | 2.0 | 6.0 | 0.00 | 0.00 | 0.00 | 22 | 1014.7 |
| 20260906161159 | 79 | 172 | 3.0 | 4.0 | 0.00 | 0.00 | 0.00 | 25 | 1014.6 |
| 20260906161059 | 79 | 234 | 3.0 | 4.0 | 0.00 | 0.00 | 0.00 | 24 | 1014.6 |
| 20260906160959 | 79 | 222 | 3.0 | 4.0 | 0.00 | 0.00 | 0.00 | 23 | 1014.7 |
| 20260906160900 | 79 | 193 | 3.0 | 4.0 | 0.00 | 0.00 | 0.00 | 25 | 1014.6 |
| 20260906160800 | 79 | 89 | 2.0 | 4.0 | 0.00 | 0.00 | 0.00 | 24 | 1014.6 |
| 20260906160659 | 79 | 33 | 3.0 | 4.0 | 0.00 | 0.00 | 0.00 | 25 | 1014.6 |
| 20260906160559 | 78 | 50 | 1.0 | 4.0 | 0.00 | 0.00 | 0.00 | 22 | 1014.6 |
| 20260906160259 | 78 | 74 | 1.0 | 3.0 | 0.00 | 0.00 | 0.00 | 22 | 1014.6 |
| 20260906160159 | 78 | 77 | 0.0 | 3.0 | 0.00 | 0.00 | 0.00 | 22 | 1014.7 |
| 20260906160059 | 78 | 80 | 1.0 | 3.0 | 0.00 | 0.00 | 0.00 | 22 | 1014.6 |
| 20260906160004 | 78 | 80 | 0.0 | 3.0 | 0.00 | 0.00 | 0.00 | 23 | 1014.6 |
| 20260906155859 | 78 | 82 | 1.0 | 3.0 | 0.00 | 0.00 | 0.00 | 23 | 1014.7 |
| 20260906155658 | 77 | 51 | 1.0 | 3.0 | 0.00 | 0.00 | 0.00 | 23 | 1014.6 |
| 20260906155559 | 77 | 51 | 1.0 | 3.0 | 0.00 | 0.00 | 0.00 | 22 | 1014.7 |
| 20260906155359 | 77 | 53 | 0.0 | 3.0 | 0.00 | 0.00 | 0.00 | 23 | 1014.7 |
| 20260906155259 | 77 | 53 | 0.0 | 3.0 | 0.00 | 0.00 | 0.00 | 23 | 1014.7 |
| 20260906155200 | 76 | 53 | 0.0 | 3.0 | 0.00 | 0.00 | 0.00 | 24 | 1014.7 |
| 20260906155059 | 76 | 56 | 1.0 | 3.0 | 0.00 | 0.00 | 0.00 | 23 | 1014.7 |
| 20260906155000 | 76 | 55 | 1.0 | 3.0 | 0.00 | 0.00 | 0.00 | 25 | 1014.7 |
| 20260906154859 | 76 | 96 | 2.0 | 3.0 | 0.00 | 0.00 | 0.00 | 24 | 1014.7 |
| 20260906154658 | 76 | 5 | 0.0 | 3.0 | 0.00 | 0.00 | 0.00 | 23 | 1014.7 |
| 20260906154559 | 76 | 43 | 2.0 | 3.0 | 0.00 | 0.00 | 0.00 | 24 | 1014.8 |
| 20260906154500 | 76 | 351 | 1.0 | 2.0 | 0.00 | 0.00 | 0.00 | 27 | 1014.8 |
| 20260906154300 | 76 | 274 | 1.0 | 2.0 | 0.00 | 0.00 | 0.00 | 25 | 1014.8 |
| 20260906154200 | 76 | 280 | 1.0 | 2.0 | 0.00 | 0.00 | 0.00 | 26 | 1014.8 |
| 20260906154100 | 75 | 342 | 0.0 | 2.0 | 0.00 | 0.00 | 0.00 | 26 | 1014.8 |
| 20260906154000 | 75 | 342 | 1.0 | 2.0 | 0.00 | 0.00 | 0.00 | 26 | 1014.8 |
| 20260906153900 | 75 | 342 | 1.0 | 2.0 | 0.00 | 0.00 | 0.00 | 27 | 1014.8 |
| 20260906153758 | 75 | 342 | 1.0 | 2.0 | 0.00 | 0.00 | 0.00 | 26 | 1014.9 |
| 20260906153700 | 75 | 342 | 1.0 | 2.0 | 0.00 | 0.00 | 0.00 | 27 | 1014.8 |
| 20260906153600 | 75 | 342 | 1.0 | 2.0 | 0.00 | 0.00 | 0.00 | 27 | 1014.8 |
| 20260906153459 | 75 | 342 | 1.0 | 2.0 | 0.00 | 0.00 | 0.00 | 29 | 1014.8 |
| 20260906153359 | 75 | 340 | 0.0 | 2.0 | 0.00 | 0.00 | 0.00 | 28 | 1014.9 |
| 20260906153258 | 75 | 340 | 1.0 | 2.0 | 0.00 | 0.00 | 0.00 | 27 | 1014.9 |
| 20260906153159 | 75 | 344 | 0.0 | 2.0 | 0.00 | 0.00 | 0.00 | 27 | 1014.8 |
| 20260906153100 | 75 | 344 | 0.0 | 3.0 | 0.00 | 0.00 | 0.00 | 28 | 1014.9 |
| 20260906152959 | 75 | 344 | 2.0 | 3.0 | 0.00 | 0.00 | 0.00 | 26 | 1014.9 |
| 20260906152859 | 75 | 344 | 1.0 | 3.0 | 0.00 | 0.00 | 0.00 | 26 | 1014.9 |
| 20260906152759 | 75 | 331 | 0.0 | 3.0 | 0.00 | 0.00 | 0.00 | 27 | 1014.9 |
| 20260906152659 | 74 | 321 | 1.0 | 3.0 | 0.00 | 0.00 | 0.00 | 26 | 1014.8 |
| 20260906152559 | 74 | 313 | 0.0 | 3.0 | 0.00 | 0.00 | 0.00 | 25 | 1014.9 |
| 20260906152500 | 74 | 313 | 1.0 | 3.0 | 0.00 | 0.00 | 0.00 | 27 | 1014.8 |
| 20260906152359 | 74 | 313 | 0.0 | 3.0 | 0.00 | 0.00 | 0.00 | 27 | 1014.8 |
| 20260906152259 | 74 | 313 | 1.0 | 3.0 | 0.00 | 0.00 | 0.00 | 27 | 1014.8 |
| 20260906152059 | 74 | 216 | 2.0 | 2.0 | 0.00 | 0.00 | 0.00 | 27 | 1014.8 |
| 20260906152000 | 74 | 340 | 1.0 | 2.0 | 0.00 | 0.00 | 0.00 | 28 | 1014.8 |
| 20260906151900 | 74 | 261 | 0.0 | 1.0 | 0.00 | 0.00 | 0.00 | 27 | 1014.8 |
| 20260906151759 | 74 | 261 | 0.0 | 4.0 | 0.00 | 0.00 | 0.00 | 27 | 1014.8 |
| 20260906151700 | 74 | 261 | 0.0 | 5.0 | 0.00 | 0.00 | 0.00 | 25 | 1014.8 |
| 20260906151559 | 74 | 313 | 0.0 | 8.0 | 0.00 | 0.00 | 0.00 | 25 | 1014.8 |
| 20260906151500 | 74 | 313 | 0.0 | 8.0 | 0.00 | 0.00 | 0.00 | 25 | 1014.8 |
| 20260906151400 | 74 | 313 | 0.0 | 8.0 | 0.00 | 0.00 | 0.00 | 26 | 1014.8 |
| 20260906151300 | 74 | 313 | 0.0 | 8.0 | 0.00 | 0.00 | 0.00 | 26 | 1014.8 |
| 20260906151159 | 74 | 313 | 0.0 | 8.0 | 0.00 | 0.00 | 0.00 | 25 | 1014.8 |
| 20260906151059 | 75 | 313 | 1.0 | 8.0 | 0.00 | 0.00 | 0.00 | 25 | 1014.8 |
| 20260906150959 | 75 | 308 | 1.0 | 8.0 | 0.00 | 0.00 | 0.00 | 25 | 1014.8 |
| 20260906150859 | 75 | 302 | 1.0 | 8.0 | 0.00 | 0.00 | 0.00 | 25 | 1014.8 |
| 20260906150759 | 75 | 206 | 1.0 | 8.0 | 0.00 | 0.00 | 0.00 | 24 | 1014.7 |
| 20260906150659 | 75 | 246 | 5.0 | 6.0 | 0.00 | 0.00 | 0.00 | 24 | 1014.7 |
| 20260906150500 | 74 | 89 | 2.0 | 11.0 | 0.00 | 0.00 | 0.00 | 27 | 1014.7 |
| 20260906150359 | 74 | 215 | 2.0 | 11.0 | 0.00 | 0.00 | 0.00 | 24 | 1014.7 |
| 20260906150258 | 74 | 204 | 4.0 | 11.0 | 0.00 | 0.00 | 0.00 | 23 | 1014.7 |
| 20260906150159 | 74 | 189 | 2.0 | 11.0 | 0.00 | 0.00 | 0.00 | 24 | 1014.7 |
| 20260906150059 | 74 | 162 | 1.0 | 11.0 | 0.00 | 0.00 | 0.00 | 23 | 1014.7 |
| 20260906145858 | 74 | 184 | 2.0 | 11.0 | 0.00 | 0.00 | 0.00 | 23 | 1014.7 |
| 20260906145759 | 74 | 143 | 3.0 | 11.0 | 0.00 | 0.00 | 0.00 | 22 | 1014.7 |
| 20260906145700 | 74 | 134 | 3.0 | 8.0 | 0.00 | 0.00 | 0.00 | 23 | 1014.7 |
| 20260906145559 | 74 | 144 | 4.0 | 6.0 | 0.00 | 0.00 | 0.00 | 25 | 1014.7 |
| 20260906145359 | 74 | 213 | 2.0 | 6.0 | 0.00 | 0.00 | 0.00 | 24 | 1014.7 |
| 20260906145300 | 74 | 211 | 2.0 | 8.0 | 0.00 | 0.00 | 0.00 | 24 | 1014.7 |
| 20260906145158 | 74 | 227 | 3.0 | 8.0 | 0.00 | 0.00 | 0.00 | 24 | 1014.6 |
| 20260906145058 | 74 | 194 | 4.0 | 8.0 | 0.00 | 0.00 | 0.00 | 23 | 1014.7 |
| 20260906144858 | 74 | 152 | 3.0 | 8.0 | 0.00 | 0.00 | 0.00 | 23 | 1014.6 |
| 20260906144659 | 74 | 173 | 2.0 | 8.0 | 0.00 | 0.00 | 0.00 | 22 | 1014.6 |
| 20260906144600 | 74 | 134 | 2.0 | 8.0 | 0.00 | 0.00 | 0.00 | 23 | 1014.6 |
| 20260906144359 | 73 | 124 | 1.0 | 8.0 | 0.00 | 0.00 | 0.00 | 23 | 1014.6 |
| 20260906144259 | 73 | 121 | 8.0 | 8.0 | 0.00 | 0.00 | 0.00 | 22 | 1014.5 |
| 20260906144159 | 73 | 111 | 2.0 | 8.0 | 0.00 | 0.00 | 0.00 | 23 | 1014.5 |
| 20260906144058 | 73 | 75 | 4.0 | 8.0 | 0.00 | 0.00 | 0.00 | 24 | 1014.5 |
| 20260906143959 | 73 | 141 | 2.0 | 8.0 | 0.00 | 0.00 | 0.00 | 23 | 1014.6 |
| 20260906143859 | 73 | 136 | 4.0 | 8.0 | 0.00 | 0.00 | 0.00 | 23 | 1014.6 |
| 20260906143800 | 73 | 197 | 4.0 | 8.0 | 0.00 | 0.00 | 0.00 | 25 | 1014.6 |
| 20260906143658 | 73 | 159 | 3.0 | 8.0 | 0.00 | 0.00 | 0.00 | 25 | 1014.6 |
| 20260906143501 | 73 | 170 | 1.0 | 7.0 | 0.00 | 0.00 | 0.00 | 24 | 1014.6 |
| 20260906143359 | 73 | 174 | 3.0 | 7.0 | 0.00 | 0.00 | 0.00 | 24 | 1014.5 |
| 20260906143259 | 73 | 202 | 2.0 | 7.0 | 0.00 | 0.00 | 0.00 | 24 | 1014.6 |
| 20260906143158 | 73 | 138 | 3.0 | 7.0 | 0.00 | 0.00 | 0.00 | 24 | 1014.5 |
| 20260906143059 | 72 | 136 | 2.0 | 11.0 | 0.00 | 0.00 | 0.00 | 24 | 1014.5 |
| 20260906142959 | 72 | 221 | 1.0 | 11.0 | 0.00 | 0.00 | 0.00 | 23 | 1014.5 |
| 20260906142858 | 72 | 157 | 3.0 | 11.0 | 0.00 | 0.00 | 0.00 | 23 | 1014.5 |
| 20260906142759 | 72 | 131 | 4.0 | 11.0 | 0.00 | 0.00 | 0.00 | 24 | 1014.5 |
| 20260906142659 | 72 | 223 | 1.0 | 11.0 | 0.00 | 0.00 | 0.00 | 24 | 1014.4 |
| 20260906142559 | 72 | 188 | 4.0 | 11.0 | 0.00 | 0.00 | 0.00 | 23 | 1014.5 |
| 20260906142459 | 72 | 181 | 5.0 | 11.0 | 0.00 | 0.00 | 0.00 | 24 | 1014.5 |
| 20260906142359 | 72 | 123 | 2.0 | 11.0 | 0.00 | 0.00 | 0.00 | 24 | 1014.5 |
| 20260906142259 | 72 | 165 | 2.0 | 11.0 | 0.00 | 0.00 | 0.00 | 24 | 1014.4 |
| 20260906142158 | 72 | 90 | 3.0 | 11.0 | 0.00 | 0.00 | 0.00 | 24 | 1014.5 |
| 20260906142100 | 72 | 131 | 6.0 | 7.0 | 0.00 | 0.00 | 0.00 | 24 | 1014.4 |
| 20260906142000 | 72 | 95 | 1.0 | 6.0 | 0.00 | 0.00 | 0.00 | 24 | 1014.4 |
| 20260906141859 | 72 | 146 | 1.0 | 6.0 | 0.00 | 0.00 | 0.00 | 24 | 1014.4 |
| 20260906141759 | 72 | 146 | 1.0 | 6.0 | 0.00 | 0.00 | 0.00 | 23 | 1014.4 |
| 20260906141658 | 72 | 144 | 1.0 | 6.0 | 0.00 | 0.00 | 0.00 | 24 | 1014.4 |
| 20260906141559 | 72 | 117 | 1.0 | 6.0 | 0.00 | 0.00 | 0.00 | 24 | 1014.4 |
| 20260906141359 | 72 | 96 | 1.0 | 6.0 | 0.00 | 0.00 | 0.00 | 23 | 1014.4 |
| 20260906141159 | 72 | 139 | 5.0 | 5.0 | 0.00 | 0.00 | 0.00 | 24 | 1014.4 |
| 20260906141059 | 72 | 148 | 1.0 | 5.0 | 0.00 | 0.00 | 0.00 | 23 | 1014.4 |
| 20260906140900 | 72 | 90 | 5.0 | 5.0 | 0.00 | 0.00 | 0.00 | 23 | 1014.3 |
| 20260906140759 | 72 | 150 | 2.0 | 5.0 | 0.00 | 0.00 | 0.00 | 24 | 1014.3 |
| 20260906140659 | 72 | 116 | 0.0 | 5.0 | 0.00 | 0.00 | 0.00 | 24 | 1014.4 |
| 20260906140559 | 73 | 109 | 1.0 | 6.0 | 0.00 | 0.00 | 0.00 | 23 | 1014.3 |
| 20260906140500 | 73 | 137 | 1.0 | 6.0 | 0.00 | 0.00 | 0.00 | 23 | 1014.3 |
| 20260906140359 | 73 | 161 | 1.0 | 6.0 | 0.00 | 0.00 | 0.00 | 23 | 1014.3 |
| 20260906140259 | 73 | 95 | 2.0 | 6.0 | 0.00 | 0.00 | 0.00 | 23 | 1014.3 |
| 20260906140059 | 73 | 160 | 2.0 | 7.0 | 0.00 | 0.00 | 0.00 | 23 | 1014.4 |
| 20260906140002 | 73 | 134 | 1.0 | 7.0 | 0.00 | 0.00 | 0.00 | 24 | 1014.4 |
| 20260906135759 | 73 | 150 | 3.0 | 7.0 | 0.00 | 0.00 | 0.00 | 22 | 1014.3 |
| 20260906135659 | 73 | 151 | 3.0 | 7.0 | 0.00 | 0.00 | 0.00 | 22 | 1014.4 |
| 20260906135559 | 73 | 134 | 3.0 | 7.0 | 0.00 | 0.00 | 0.00 | 22 | 1014.4 |
| 20260906135459 | 73 | 145 | 4.0 | 7.0 | 0.00 | 0.00 | 0.00 | 22 | 1014.3 |
| 20260906135359 | 73 | 135 | 4.0 | 7.0 | 0.00 | 0.00 | 0.00 | 22 | 1014.3 |
| 20260906135259 | 73 | 175 | 2.0 | 7.0 | 0.00 | 0.00 | 0.00 | 22 | 1014.3 |
| 20260906135159 | 73 | 134 | 4.0 | 8.0 | 0.00 | 0.00 | 0.00 | 22 | 1014.4 |
| 20260906135059 | 73 | 149 | 4.0 | 8.0 | 0.00 | 0.00 | 0.00 | 22 | 1014.3 |
| 20260906134858 | 73 | 179 | 4.0 | 8.0 | 0.00 | 0.00 | 0.00 | 23 | 1014.2 |
| 20260906134800 | 73 | 192 | 2.0 | 8.0 | 0.00 | 0.00 | 0.00 | 22 | 1014.3 |
| 20260906134659 | 73 | 128 | 5.0 | 8.0 | 0.00 | 0.00 | 0.00 | 22 | 1014.2 |
| 20260906134559 | 73 | 110 | 3.0 | 8.0 | 0.00 | 0.00 | 0.00 | 22 | 1014.3 |
| 20260906134459 | 73 | 136 | 1.0 | 8.0 | 0.00 | 0.00 | 0.00 | 22 | 1014.2 |
| 20260906134359 | 73 | 100 | 8.0 | 8.0 | 0.00 | 0.00 | 0.00 | 22 | 1014.2 |
| 20260906134159 | 73 | 117 | 2.0 | 7.0 | 0.00 | 0.00 | 0.00 | 22 | 1014.2 |
| 20260906133959 | 73 | 135 | 4.0 | 7.0 | 0.00 | 0.00 | 0.00 | 22 | 1014.1 |
| 20260906133859 | 73 | 126 | 4.0 | 7.0 | 0.00 | 0.00 | 0.00 | 22 | 1014.1 |
| 20260906133758 | 73 | 118 | 3.0 | 9.0 | 0.00 | 0.00 | 0.00 | 22 | 1014.1 |
| 20260906133659 | 73 | 126 | 5.0 | 9.0 | 0.00 | 0.00 | 0.00 | 22 | 1014.1 |
| 20260906133558 | 73 | 192 | 2.0 | 9.0 | 0.00 | 0.00 | 0.00 | 22 | 1014.1 |
| 20260906133459 | 73 | 134 | 4.0 | 9.0 | 0.00 | 0.00 | 0.00 | 22 | 1014.1 |
| 20260906133400 | 73 | 164 | 3.0 | 9.0 | 0.00 | 0.00 | 0.00 | 22 | 1014.0 |
| 20260906133259 | 74 | 157 | 1.0 | 9.0 | 0.00 | 0.00 | 0.00 | 22 | 1014.1 |
| 20260906133159 | 74 | 103 | 3.0 | 9.0 | 0.00 | 0.00 | 0.00 | 21 | 1014.1 |
| 20260906133000 | 74 | 116 | 3.0 | 9.0 | 0.00 | 0.00 | 0.00 | 22 | 1014.0 |
| 20260906132759 | 74 | 212 | 3.0 | 9.0 | 0.00 | 0.00 | 0.00 | 21 | 1014.0 |
| 20260906132659 | 74 | 137 | 4.0 | 9.0 | 0.00 | 0.00 | 0.00 | 21 | 1014.0 |
| 20260906132559 | 74 | 159 | 5.0 | 9.0 | 0.00 | 0.00 | 0.00 | 21 | 1014.0 |
| 20260906132459 | 74 | 136 | 4.0 | 9.0 | 0.00 | 0.00 | 0.00 | 21 | 1014.0 |
| 20260906132400 | 74 | 167 | 4.0 | 9.0 | 0.00 | 0.00 | 0.00 | 22 | 1013.9 |
| 20260906132259 | 74 | 111 | 0.0 | 9.0 | 0.00 | 0.00 | 0.00 | 21 | 1014.0 |
| 20260906132158 | 73 | 135 | 5.0 | 10.0 | 0.00 | 0.00 | 0.00 | 21 | 1013.9 |
| 20260906132059 | 73 | 117 | 5.0 | 10.0 | 0.00 | 0.00 | 0.00 | 21 | 1013.9 |
| 20260906131959 | 73 | 112 | 3.0 | 12.0 | 0.00 | 0.00 | 0.00 | 21 | 1013.9 |
| 20260906131659 | 73 | 142 | 2.0 | 12.0 | 0.00 | 0.00 | 0.00 | 21 | 1013.9 |
| 20260906131559 | 73 | 126 | 6.0 | 12.0 | 0.00 | 0.00 | 0.00 | 22 | 1013.9 |
| 20260906131459 | 73 | 126 | 5.0 | 12.0 | 0.00 | 0.00 | 0.00 | 21 | 1014.0 |
| 20260906131358 | 73 | 128 | 7.0 | 12.0 | 0.00 | 0.00 | 0.00 | 22 | 1013.9 |
| 20260906131258 | 73 | 40 | 3.0 | 12.0 | 0.00 | 0.00 | 0.00 | 22 | 1013.9 |
| 20260906131158 | 73 | 69 | 3.0 | 12.0 | 0.00 | 0.00 | 0.00 | 21 | 1014.0 |
| 20260906131059 | 73 | 103 | 5.0 | 12.0 | 0.00 | 0.00 | 0.00 | 22 | 1013.9 |
| 20260906130659 | 73 | 132 | 2.0 | 8.0 | 0.00 | 0.00 | 0.00 | 22 | 1014.0 |
| 20260906130500 | 73 | 111 | 3.0 | 6.0 | 0.00 | 0.00 | 0.00 | 22 | 1014.0 |
| 20260906130359 | 73 | 126 | 3.0 | 6.0 | 0.00 | 0.00 | 0.00 | 22 | 1014.0 |
| 20260906130259 | 73 | 123 | 3.0 | 6.0 | 0.00 | 0.00 | 0.00 | 22 | 1014.0 |
| 20260906130159 | 73 | 162 | 2.0 | 7.0 | 0.00 | 0.00 | 0.00 | 21 | 1014.0 |
| 20260906130058 | 73 | 92 | 3.0 | 6.0 | 0.00 | 0.00 | 0.00 | 22 | 1014.0 |
| 20260906130004 | 73 | 137 | 1.0 | 6.0 | 0.00 | 0.00 | 0.00 | 21 | 1014.0 |
| 20260906125859 | 73 | 239 | 2.0 | 6.0 | 0.00 | 0.00 | 0.00 | 21 | 1014.0 |
| 20260906125759 | 73 | 164 | 1.0 | 6.0 | 0.00 | 0.00 | 0.00 | 21 | 1014.0 |
| 20260906125658 | 73 | 169 | 2.0 | 6.0 | 0.00 | 0.00 | 0.00 | 21 | 1013.9 |
| 20260906125559 | 73 | 163 | 2.0 | 7.0 | 0.00 | 0.00 | 0.00 | 21 | 1013.9 |
| 20260906125459 | 73 | 143 | 1.0 | 10.0 | 0.00 | 0.00 | 0.00 | 21 | 1013.9 |
| 20260906125359 | 73 | 154 | 0.0 | 10.0 | 0.00 | 0.00 | 0.00 | 21 | 1014.0 |
| 20260906125259 | 73 | 134 | 4.0 | 10.0 | 0.00 | 0.00 | 0.00 | 21 | 1013.9 |
| 20260906125059 | 73 | 78 | 4.0 | 10.0 | 0.00 | 0.00 | 0.00 | 21 | 1014.0 |
| 20260906125000 | 73 | 86 | 7.0 | 10.0 | 0.00 | 0.00 | 0.00 | 20 | 1013.9 |
| 20260906124859 | 73 | 101 | 3.0 | 10.0 | 0.00 | 0.00 | 0.00 | 21 | 1014.0 |
| 20260906124759 | 73 | 92 | 3.0 | 10.0 | 0.00 | 0.00 | 0.00 | 21 | 1014.0 |
| 20260906124658 | 73 | 85 | 5.0 | 10.0 | 0.00 | 0.00 | 0.00 | 20 | 1014.0 |
| 20260906124558 | 74 | 125 | 2.0 | 10.0 | 0.00 | 0.00 | 0.00 | 20 | 1014.0 |
| 20260906124459 | 74 | 163 | 2.0 | 8.0 | 0.00 | 0.00 | 0.00 | 20 | 1014.0 |
| 20260906124358 | 74 | 129 | 1.0 | 8.0 | 0.00 | 0.00 | 0.00 | 21 | 1013.9 |
| 20260906124259 | 74 | 140 | 2.0 | 8.0 | 0.00 | 0.00 | 0.00 | 20 | 1014.0 |
| 20260906124159 | 74 | 162 | 5.0 | 8.0 | 0.00 | 0.00 | 0.00 | 20 | 1013.9 |
| 20260906124058 | 74 | 155 | 2.0 | 8.0 | 0.00 | 0.00 | 0.00 | 20 | 1014.0 |
| 20260906123959 | 74 | 98 | 3.0 | 8.0 | 0.00 | 0.00 | 0.00 | 20 | 1014.0 |
| 20260906123858 | 74 | 104 | 3.0 | 7.0 | 0.00 | 0.00 | 0.00 | 20 | 1013.9 |
| 20260906123759 | 74 | 153 | 3.0 | 8.0 | 0.00 | 0.00 | 0.00 | 20 | 1013.9 |
| 20260906123658 | 74 | 144 | 3.0 | 9.0 | 0.00 | 0.00 | 0.00 | 20 | 1013.9 |
| 20260906123559 | 74 | 150 | 4.0 | 9.0 | 0.00 | 0.00 | 0.00 | 20 | 1013.9 |
| 20260906123500 | 74 | 150 | 3.0 | 9.0 | 0.00 | 0.00 | 0.00 | 20 | 1013.9 |
| 20260906123359 | 74 | 145 | 3.0 | 9.0 | 0.00 | 0.00 | 0.00 | 19 | 1013.9 |
| 20260906123300 | 74 | 85 | 3.0 | 9.0 | 0.00 | 0.00 | 0.00 | 19 | 1013.9 |
| 20260906123159 | 74 | 107 | 2.0 | 9.0 | 0.00 | 0.00 | 0.00 | 20 | 1013.9 |
| 20260906123058 | 74 | 139 | 3.0 | 9.0 | 0.00 | 0.00 | 0.00 | 20 | 1013.9 |
| 20260906122959 | 74 | 140 | 1.0 | 9.0 | 0.00 | 0.00 | 0.00 | 20 | 1014.0 |
| 20260906122858 | 74 | 136 | 3.0 | 9.0 | 0.00 | 0.00 | 0.00 | 19 | 1013.9 |
| 20260906122658 | 74 | 136 | 5.0 | 9.0 | 0.00 | 0.00 | 0.00 | 19 | 1013.9 |
| 20260906122558 | 74 | 94 | 1.0 | 7.0 | 0.00 | 0.00 | 0.00 | 19 | 1013.9 |
| 20260906122459 | 74 | 132 | 4.0 | 7.0 | 0.00 | 0.00 | 0.00 | 19 | 1013.9 |
| 20260906122359 | 74 | 162 | 1.0 | 7.0 | 0.00 | 0.00 | 0.00 | 19 | 1013.9 |
| 20260906122259 | 74 | 148 | 2.0 | 7.0 | 0.00 | 0.00 | 0.00 | 19 | 1013.9 |
| 20260906122158 | 74 | 123 | 1.0 | 8.0 | 0.00 | 0.00 | 0.00 | 18 | 1013.8 |
| 20260906122058 | 74 | 138 | 3.0 | 8.0 | 0.00 | 0.00 | 0.00 | 19 | 1013.9 |
| 20260906121859 | 74 | 121 | 2.0 | 9.0 | 0.00 | 0.00 | 0.00 | 19 | 1013.9 |
| 20260906121759 | 74 | 156 | 2.0 | 9.0 | 0.00 | 0.00 | 0.00 | 19 | 1013.9 |
| 20260906121659 | 74 | 153 | 2.0 | 9.0 | 0.00 | 0.00 | 0.00 | 19 | 1013.9 |
| 20260906121558 | 74 | 175 | 4.0 | 9.0 | 0.00 | 0.00 | 0.00 | 19 | 1013.8 |
| 20260906121359 | 74 | 161 | 2.0 | 11.0 | 0.00 | 0.00 | 0.00 | 19 | 1013.9 |
| 20260906121259 | 74 | 190 | 2.0 | 11.0 | 0.00 | 0.00 | 0.00 | 19 | 1013.9 |
| 20260906121159 | 74 | 133 | 5.0 | 11.0 | 0.00 | 0.00 | 0.00 | 18 | 1013.9 |
| 20260906121100 | 74 | 184 | 6.0 | 11.0 | 0.00 | 0.00 | 0.00 | 19 | 1013.9 |
| 20260906120759 | 75 | 165 | 3.0 | 11.0 | 0.00 | 0.00 | 0.00 | 18 | 1013.9 |
| 20260906120659 | 75 | 116 | 3.0 | 11.0 | 0.00 | 0.00 | 0.00 | 19 | 1013.8 |
| 20260906120558 | 75 | 93 | 3.0 | 10.0 | 0.00 | 0.00 | 0.00 | 18 | 1013.8 |
| 20260906120459 | 75 | 180 | 1.0 | 10.0 | 0.00 | 0.00 | 0.00 | 18 | 1013.9 |
| 20260906120359 | 75 | 95 | 6.0 | 9.0 | 0.00 | 0.00 | 0.00 | 18 | 1013.9 |
| 20260906120300 | 75 | 121 | 1.0 | 9.0 | 0.00 | 0.00 | 0.00 | 18 | 1013.8 |
| 20260906120059 | 75 | 126 | 7.0 | 9.0 | 0.00 | 0.00 | 0.00 | 18 | 1013.8 |
| 20260906120004 | 75 | 107 | 2.0 | 9.0 | 0.00 | 0.00 | 0.00 | 18 | 1013.8 |
| 20260906115858 | 75 | 175 | 1.0 | 9.0 | 0.00 | 0.00 | 0.00 | 18 | 1013.8 |
| 20260906115758 | 75 | 142 | 3.0 | 9.0 | 0.00 | 0.00 | 0.00 | 17 | 1013.9 |
| 20260906115658 | 75 | 110 | 8.0 | 9.0 | 0.00 | 0.00 | 0.00 | 18 | 1013.9 |
| 20260906115559 | 75 | 132 | 3.0 | 9.0 | 0.00 | 0.00 | 0.00 | 18 | 1013.9 |
| 20260906115459 | 75 | 161 | 5.0 | 10.0 | 0.00 | 0.00 | 0.00 | 18 | 1013.9 |
| 20260906115359 | 75 | 167 | 7.0 | 10.0 | 0.00 | 0.00 | 0.00 | 18 | 1013.9 |
| 20260906115158 | 75 | 159 | 4.0 | 10.0 | 0.00 | 0.00 | 0.00 | 18 | 1013.8 |
| 20260906115059 | 75 | 13 | 4.0 | 10.0 | 0.00 | 0.00 | 0.00 | 18 | 1013.8 |
| 20260906115000 | 75 | 129 | 2.0 | 10.0 | 0.00 | 0.00 | 0.00 | 18 | 1013.9 |
| 20260906114859 | 75 | 211 | 7.0 | 11.0 | 0.00 | 0.00 | 0.00 | 18 | 1013.8 |
| 20260906114758 | 75 | 144 | 4.0 | 11.0 | 0.00 | 0.00 | 0.00 | 18 | 1013.8 |
| 20260906114358 | 75 | 133 | 6.0 | 12.0 | 0.00 | 0.00 | 0.00 | 18 | 1013.8 |
| 20260906114259 | 75 | 103 | 3.0 | 12.0 | 0.00 | 0.00 | 0.00 | 17 | 1013.8 |
| 20260906114158 | 75 | 75 | 2.0 | 12.0 | 0.00 | 0.00 | 0.00 | 17 | 1013.8 |
| 20260906114000 | 75 | 191 | 3.0 | 12.0 | 0.00 | 0.00 | 0.00 | 17 | 1013.9 |
| 20260906113859 | 75 | 149 | 7.0 | 12.0 | 0.00 | 0.00 | 0.00 | 17 | 1013.8 |
| 20260906113659 | 75 | 144 | 5.0 | 11.0 | 0.00 | 0.00 | 0.00 | 17 | 1013.8 |
| 20260906113559 | 75 | 213 | 3.0 | 14.0 | 0.00 | 0.00 | 0.00 | 17 | 1013.8 |
| 20260906113501 | 75 | 148 | 5.0 | 14.0 | 0.00 | 0.00 | 0.00 | 17 | 1013.8 |
| 20260906113359 | 75 | 142 | 5.0 | 14.0 | 0.00 | 0.00 | 0.00 | 17 | 1013.8 |
| 20260906113259 | 75 | 151 | 4.0 | 14.0 | 0.00 | 0.00 | 0.00 | 17 | 1013.8 |
| 20260906113159 | 75 | 120 | 9.0 | 14.0 | 0.00 | 0.00 | 0.00 | 17 | 1013.8 |
| 20260906113059 | 75 | 163 | 3.0 | 14.0 | 0.00 | 0.00 | 0.00 | 17 | 1013.8 |
| 20260906112859 | 75 | 147 | 3.0 | 14.0 | 0.00 | 0.00 | 0.00 | 17 | 1013.8 |
| 20260906112759 | 75 | 146 | 3.0 | 14.0 | 0.00 | 0.00 | 0.00 | 17 | 1013.8 |
| 20260906112659 | 75 | 129 | 12.0 | 12.0 | 0.00 | 0.00 | 0.00 | 17 | 1013.8 |
| 20260906112559 | 75 | 130 | 4.0 | 12.0 | 0.00 | 0.00 | 0.00 | 17 | 1013.8 |
| 20260906112359 | 75 | 89 | 1.0 | 12.0 | 0.00 | 0.00 | 0.00 | 17 | 1013.8 |
| 20260906112259 | 75 | 196 | 5.0 | 12.0 | 0.00 | 0.00 | 0.00 | 17 | 1013.9 |
| 20260906112159 | 75 | 163 | 1.0 | 12.0 | 0.00 | 0.00 | 0.00 | 17 | 1013.8 |
| 20260906112058 | 75 | 123 | 7.0 | 12.0 | 0.00 | 0.00 | 0.00 | 17 | 1013.8 |
| 20260906111959 | 75 | 144 | 5.0 | 12.0 | 0.00 | 0.00 | 0.00 | 17 | 1013.9 |
| 20260906111859 | 75 | 151 | 6.0 | 10.0 | 0.00 | 0.00 | 0.00 | 17 | 1013.8 |
| 20260906111659 | 75 | 207 | 4.0 | 8.0 | 0.00 | 0.00 | 0.00 | 16 | 1013.8 |
| 20260906111559 | 75 | 149 | 2.0 | 8.0 | 0.00 | 0.00 | 0.00 | 16 | 1013.9 |
| 20260906111500 | 75 | 79 | 2.0 | 9.0 | 0.00 | 0.00 | 0.00 | 17 | 1013.8 |
| 20260906111359 | 75 | 118 | 2.0 | 10.0 | 0.00 | 0.00 | 0.00 | 16 | 1013.9 |
| 20260906111259 | 75 | 110 | 2.0 | 10.0 | 0.00 | 0.00 | 0.00 | 17 | 1013.8 |
| 20260906111158 | 75 | 138 | 2.0 | 10.0 | 0.00 | 0.00 | 0.00 | 17 | 1013.8 |
| 20260906111059 | 76 | 26 | 2.0 | 10.0 | 0.00 | 0.00 | 0.00 | 16 | 1013.9 |
| 20260906110959 | 76 | 166 | 5.0 | 10.0 | 0.00 | 0.00 | 0.00 | 17 | 1013.9 |
| 20260906110859 | 76 | 152 | 3.0 | 10.0 | 0.00 | 0.00 | 0.00 | 16 | 1013.8 |
| 20260906110759 | 76 | 198 | 3.0 | 10.0 | 0.00 | 0.00 | 0.00 | 16 | 1013.8 |
| 20260906110658 | 76 | 193 | 3.0 | 10.0 | 0.00 | 0.00 | 0.00 | 15 | 1013.8 |
| 20260906110558 | 76 | 187 | 5.0 | 10.0 | 0.00 | 0.00 | 0.00 | 16 | 1013.8 |
| 20260906110459 | 76 | 91 | 5.0 | 9.0 | 0.00 | 0.00 | 0.00 | 16 | 1013.8 |
| 20260906110400 | 76 | 130 | 2.0 | 9.0 | 0.00 | 0.00 | 0.00 | 16 | 1013.8 |
| 20260906110200 | 76 | 106 | 4.0 | 9.0 | 0.00 | 0.00 | 0.00 | 16 | 1013.8 |
| 20260906110003 | 76 | 86 | 1.0 | 9.0 | 0.00 | 0.00 | 0.00 | 16 | 1013.8 |
| 20260906105900 | 76 | 144 | 3.0 | 9.0 | 0.00 | 0.00 | 0.00 | 16 | 1013.7 |
| 20260906105759 | 75 | 95 | 8.0 | 9.0 | 0.00 | 0.00 | 0.00 | 16 | 1013.7 |
| 20260906105700 | 75 | 144 | 1.0 | 7.0 | 0.00 | 0.00 | 0.00 | 16 | 1013.7 |
| 20260906105558 | 75 | 173 | 4.0 | 9.0 | 0.00 | 0.00 | 0.00 | 16 | 1013.7 |
| 20260906105459 | 75 | 152 | 2.0 | 9.0 | 0.00 | 0.00 | 0.00 | 16 | 1013.7 |
| 20260906105359 | 75 | 127 | 3.0 | 9.0 | 0.00 | 0.00 | 0.00 | 16 | 1013.7 |
| 20260906105259 | 75 | 97 | 2.0 | 9.0 | 0.00 | 0.00 | 0.00 | 16 | 1013.8 |
| 20260906105159 | 75 | 155 | 4.0 | 9.0 | 0.00 | 0.00 | 0.00 | 17 | 1013.7 |
| 20260906105059 | 75 | 155 | 1.0 | 9.0 | 0.00 | 0.00 | 0.00 | 16 | 1013.7 |
| 20260906104959 | 75 | 134 | 4.0 | 9.0 | 0.00 | 0.00 | 0.00 | 16 | 1013.8 |
| 20260906104559 | 75 | 88 | 1.0 | 8.0 | 0.00 | 0.00 | 0.00 | 16 | 1013.7 |
| 20260906104500 | 75 | 134 | 7.0 | 8.0 | 0.00 | 0.00 | 0.00 | 16 | 1013.8 |
| 20260906104358 | 75 | 138 | 4.0 | 8.0 | 0.00 | 0.00 | 0.00 | 16 | 1013.8 |
| 20260906104259 | 75 | 196 | 4.0 | 8.0 | 0.00 | 0.00 | 0.00 | 16 | 1013.7 |
| 20260906104159 | 75 | 197 | 2.0 | 10.0 | 0.00 | 0.00 | 0.00 | 16 | 1013.8 |
| 20260906104058 | 75 | 171 | 4.0 | 10.0 | 0.00 | 0.00 | 0.00 | 16 | 1013.7 |
| 20260906103959 | 75 | 123 | 4.0 | 10.0 | 0.00 | 0.00 | 0.00 | 16 | 1013.8 |
| 20260906103758 | 75 | 156 | 8.0 | 10.0 | 0.00 | 0.00 | 0.00 | 16 | 1013.7 |
| 20260906103658 | 75 | 141 | 8.0 | 10.0 | 0.00 | 0.00 | 0.00 | 16 | 1013.7 |
| 20260906103559 | 75 | 183 | 5.0 | 10.0 | 0.00 | 0.00 | 0.00 | 16 | 1013.8 |
| 20260906103459 | 75 | 147 | 4.0 | 10.0 | 0.00 | 0.00 | 0.00 | 16 | 1013.7 |
| 20260906103400 | 75 | 88 | 2.0 | 10.0 | 0.00 | 0.00 | 0.00 | 16 | 1013.7 |
| 20260906103301 | 76 | 232 | 3.0 | 10.0 | 0.00 | 0.00 | 0.00 | 16 | 1013.8 |
| 20260906103200 | 76 | 136 | 3.0 | 10.0 | 0.00 | 0.00 | 0.00 | 15 | 1013.7 |
| 20260906103101 | 76 | 174 | 2.0 | 10.0 | 0.00 | 0.00 | 0.00 | 16 | 1013.7 |
| 20260906102959 | 76 | 104 | 0.0 | 10.0 | 0.00 | 0.00 | 0.00 | 16 | 1013.7 |
| 20260906102858 | 76 | 120 | 3.0 | 10.0 | 0.00 | 0.00 | 0.00 | 15 | 1013.7 |
| 20260906102759 | 76 | 138 | 4.0 | 9.0 | 0.00 | 0.00 | 0.00 | 17 | 1013.7 |
| 20260906102659 | 76 | 161 | 3.0 | 10.0 | 0.00 | 0.00 | 0.00 | 16 | 1013.7 |
| 20260906102459 | 76 | 79 | 2.0 | 10.0 | 0.00 | 0.00 | 0.00 | 16 | 1013.7 |
| 20260906102359 | 76 | 72 | 2.0 | 10.0 | 0.00 | 0.00 | 0.00 | 16 | 1013.7 |
| 20260906102259 | 76 | 149 | 3.0 | 10.0 | 0.00 | 0.00 | 0.00 | 16 | 1013.7 |
| 20260906102158 | 76 | 80 | 1.0 | 10.0 | 0.00 | 0.00 | 0.00 | 16 | 1013.7 |
| 20260906102059 | 76 | 132 | 1.0 | 10.0 | 0.00 | 0.00 | 0.00 | 16 | 1013.7 |
| 20260906102000 | 76 | 121 | 4.0 | 10.0 | 0.00 | 0.00 | 0.00 | 15 | 1013.7 |
| 20260906101758 | 76 | 139 | 9.0 | 10.0 | 0.00 | 0.00 | 0.00 | 15 | 1013.7 |
| 20260906101659 | 76 | 114 | 7.0 | 10.0 | 0.00 | 0.00 | 0.00 | 15 | 1013.7 |
| 20260906101559 | 76 | 155 | 5.0 | 10.0 | 0.00 | 0.00 | 0.00 | 15 | 1013.7 |
| 20260906101400 | 76 | 221 | 5.0 | 9.0 | 0.00 | 0.00 | 0.00 | 15 | 1013.6 |
| 20260906101259 | 76 | 92 | 2.0 | 9.0 | 0.00 | 0.00 | 0.00 | 15 | 1013.6 |
| 20260906101159 | 76 | 160 | 4.0 | 9.0 | 0.00 | 0.00 | 0.00 | 15 | 1013.6 |
| 20260906100959 | 76 | 132 | 1.0 | 9.0 | 0.00 | 0.00 | 0.00 | 15 | 1013.6 |
| 20260906100858 | 76 | 142 | 2.0 | 9.0 | 0.00 | 0.00 | 0.00 | 15 | 1013.6 |
| 20260906100658 | 76 | 164 | 2.0 | 12.0 | 0.00 | 0.00 | 0.00 | 16 | 1013.6 |
| 20260906100559 | 76 | 180 | 3.0 | 12.0 | 0.00 | 0.00 | 0.00 | 16 | 1013.5 |
| 20260906100459 | 76 | 164 | 1.0 | 14.0 | 0.00 | 0.00 | 0.00 | 15 | 1013.5 |
| 20260906100358 | 76 | 146 | 3.0 | 14.0 | 0.00 | 0.00 | 0.00 | 15 | 1013.5 |
| 20260906100259 | 76 | 138 | 2.0 | 14.0 | 0.00 | 0.00 | 0.00 | 14 | 1013.5 |
| 20260906100158 | 76 | 111 | 4.0 | 14.0 | 0.00 | 0.00 | 0.00 | 15 | 1013.6 |
| 20260906100058 | 76 | 146 | 7.0 | 14.0 | 0.00 | 0.00 | 0.00 | 15 | 1013.5 |
| 20260906100003 | 76 | 240 | 2.0 | 14.0 | 0.00 | 0.00 | 0.00 | 15 | 1013.5 |
| 20260906095859 | 76 | 130 | 6.0 | 14.0 | 0.00 | 0.00 | 0.00 | 15 | 1013.5 |
| 20260906095759 | 76 | 130 | 7.0 | 14.0 | 0.00 | 0.00 | 0.00 | 15 | 1013.4 |
| 20260906095659 | 76 | 130 | 4.0 | 14.0 | 0.00 | 0.00 | 0.00 | 15 | 1013.5 |
| 20260906095558 | 76 | 142 | 8.0 | 9.0 | 0.00 | 0.00 | 0.00 | 15 | 1013.5 |
| 20260906095500 | 76 | 179 | 5.0 | 9.0 | 0.00 | 0.00 | 0.00 | 15 | 1013.6 |
| 20260906095359 | 76 | 143 | 5.0 | 9.0 | 0.00 | 0.00 | 0.00 | 15 | 1013.5 |
| 20260906095259 | 76 | 152 | 3.0 | 9.0 | 0.00 | 0.00 | 0.00 | 15 | 1013.5 |
| 20260906095059 | 76 | 64 | 4.0 | 10.0 | 0.00 | 0.00 | 0.00 | 15 | 1013.5 |
| 20260906094959 | 76 | 175 | 3.0 | 10.0 | 0.00 | 0.00 | 0.00 | 15 | 1013.5 |
| 20260906094859 | 76 | 157 | 2.0 | 10.0 | 0.00 | 0.00 | 0.00 | 14 | 1013.5 |
| 20260906094759 | 76 | 130 | 3.0 | 10.0 | 0.00 | 0.00 | 0.00 | 14 | 1013.5 |
| 20260906094459 | 76 | 209 | 2.0 | 14.0 | 0.00 | 0.00 | 0.00 | 14 | 1013.6 |
| 20260906094359 | 76 | 123 | 3.0 | 14.0 | 0.00 | 0.00 | 0.00 | 14 | 1013.5 |
| 20260906094300 | 76 | 139 | 9.0 | 14.0 | 0.00 | 0.00 | 0.00 | 14 | 1013.5 |
| 20260906094158 | 76 | 140 | 3.0 | 14.0 | 0.00 | 0.00 | 0.00 | 14 | 1013.5 |
| 20260906094059 | 76 | 167 | 4.0 | 14.0 | 0.00 | 0.00 | 0.00 | 15 | 1013.6 |
| 20260906093959 | 76 | 71 | 10.0 | 14.0 | 0.00 | 0.00 | 0.00 | 15 | 1013.5 |
| 20260906093858 | 76 | 134 | 6.0 | 14.0 | 0.00 | 0.00 | 0.00 | 15 | 1013.5 |
| 20260906093758 | 76 | 238 | 5.0 | 14.0 | 0.00 | 0.00 | 0.00 | 15 | 1013.5 |
| 20260906093559 | 76 | 132 | 5.0 | 11.0 | 0.00 | 0.00 | 0.00 | 15 | 1013.4 |
| 20260906093400 | 76 | 212 | 4.0 | 11.0 | 0.00 | 0.00 | 0.00 | 14 | 1013.4 |
| 20260906093158 | 76 | 190 | 4.0 | 14.0 | 0.00 | 0.00 | 0.00 | 14 | 1013.5 |
| 20260906093059 | 76 | 225 | 4.0 | 14.0 | 0.00 | 0.00 | 0.00 | 14 | 1013.4 |
| 20260906093001 | 76 | 147 | 3.0 | 14.0 | 0.00 | 0.00 | 0.00 | 14 | 1013.5 |
| 20260906092859 | 76 | 201 | 5.0 | 14.0 | 0.00 | 0.00 | 0.00 | 14 | 1013.5 |
| 20260906092700 | 76 | 121 | 11.0 | 14.0 | 0.00 | 0.00 | 0.00 | 14 | 1013.4 |
| 20260906092500 | 76 | 146 | 5.0 | 14.0 | 0.00 | 0.00 | 0.00 | 14 | 1013.5 |
| 20260906092359 | 76 | 234 | 2.0 | 14.0 | 0.00 | 0.00 | 0.00 | 14 | 1013.4 |
| 20260906092100 | 76 | 204 | 1.0 | 7.0 | 0.00 | 0.00 | 0.00 | 14 | 1013.4 |
| 20260906092000 | 76 | 144 | 1.0 | 8.0 | 0.00 | 0.00 | 0.00 | 14 | 1013.4 |
| 20260906091759 | 76 | 150 | 0.0 | 8.0 | 0.00 | 0.00 | 0.00 | 14 | 1013.5 |
| 20260906091659 | 76 | 127 | 5.0 | 12.0 | 0.00 | 0.00 | 0.00 | 15 | 1013.4 |
| 20260906091559 | 76 | 155 | 1.0 | 12.0 | 0.00 | 0.00 | 0.00 | 14 | 1013.4 |
| 20260906091459 | 76 | 126 | 3.0 | 12.0 | 0.00 | 0.00 | 0.00 | 14 | 1013.4 |
| 20260906091358 | 76 | 52 | 2.0 | 12.0 | 0.00 | 0.00 | 0.00 | 15 | 1013.4 |
| 20260906091259 | 76 | 191 | 1.0 | 12.0 | 0.00 | 0.00 | 0.00 | 14 | 1013.4 |
| 20260906091158 | 76 | 157 | 4.0 | 12.0 | 0.00 | 0.00 | 0.00 | 14 | 1013.4 |
| 20260906091000 | 76 | 159 | 3.0 | 12.0 | 0.00 | 0.00 | 0.00 | 15 | 1013.4 |
| 20260906090859 | 76 | 138 | 3.0 | 12.0 | 0.00 | 0.00 | 0.00 | 15 | 1013.4 |
| 20260906090659 | 76 | 103 | 2.0 | 10.0 | 0.00 | 0.00 | 0.00 | 15 | 1013.3 |
| 20260906090558 | 76 | 62 | 3.0 | 8.0 | 0.00 | 0.00 | 0.00 | 15 | 1013.3 |
| 20260906090459 | 76 | 96 | 1.0 | 9.0 | 0.00 | 0.00 | 0.00 | 15 | 1013.4 |
| 20260906090258 | 76 | 133 | 6.0 | 9.0 | 0.00 | 0.00 | 0.00 | 15 | 1013.4 |
| 20260906090158 | 76 | 198 | 3.0 | 9.0 | 0.00 | 0.00 | 0.00 | 15 | 1013.3 |
| 20260906090100 | 76 | 135 | 3.0 | 9.0 | 0.00 | 0.00 | 0.00 | 15 | 1013.3 |
| 20260906085858 | 76 | 143 | 5.0 | 9.0 | 0.00 | 0.00 | 0.00 | 15 | 1013.2 |
| 20260906085759 | 76 | 96 | 1.0 | 9.0 | 0.00 | 0.00 | 0.00 | 15 | 1013.3 |
| 20260906085658 | 76 | 138 | 3.0 | 9.0 | 0.00 | 0.00 | 0.00 | 15 | 1013.3 |
| 20260906085559 | 76 | 111 | 2.0 | 10.0 | 0.00 | 0.00 | 0.00 | 15 | 1013.3 |
| 20260906085258 | 76 | 150 | 3.0 | 8.0 | 0.00 | 0.00 | 0.00 | 15 | 1013.3 |
| 20260906085159 | 76 | 131 | 5.0 | 10.0 | 0.00 | 0.00 | 0.00 | 15 | 1013.3 |
| 20260906085059 | 76 | 208 | 4.0 | 11.0 | 0.00 | 0.00 | 0.00 | 15 | 1013.3 |
| 20260906084959 | 76 | 155 | 2.0 | 11.0 | 0.00 | 0.00 | 0.00 | 16 | 1013.2 |
| 20260906084859 | 76 | 40 | 0.0 | 11.0 | 0.00 | 0.00 | 0.00 | 15 | 1013.3 |
| 20260906084759 | 76 | 63 | 2.0 | 11.0 | 0.00 | 0.00 | 0.00 | 15 | 1013.2 |
| 20260906084659 | 76 | 79 | 3.0 | 11.0 | 0.00 | 0.00 | 0.00 | 15 | 1013.3 |
| 20260906084558 | 76 | 82 | 0.0 | 11.0 | 0.00 | 0.00 | 0.00 | 15 | 1013.3 |
| 20260906084500 | 76 | 120 | 2.0 | 11.0 | 0.00 | 0.00 | 0.00 | 15 | 1013.2 |
| 20260906084359 | 76 | 86 | 2.0 | 11.0 | 0.00 | 0.00 | 0.00 | 16 | 1013.2 |
| 20260906084258 | 76 | 131 | 6.0 | 11.0 | 0.00 | 0.00 | 0.00 | 15 | 1013.2 |
| 20260906084159 | 76 | 158 | 6.0 | 12.0 | 0.00 | 0.00 | 0.00 | 15 | 1013.2 |
| 20260906084059 | 76 | 136 | 3.0 | 8.0 | 0.00 | 0.00 | 0.00 | 16 | 1013.2 |
| 20260906084000 | 76 | 101 | 1.0 | 8.0 | 0.00 | 0.00 | 0.00 | 16 | 1013.2 |
| 20260906083859 | 76 | 117 | 1.0 | 8.0 | 0.00 | 0.00 | 0.00 | 16 | 1013.2 |
| 20260906083759 | 76 | 151 | 4.0 | 8.0 | 0.00 | 0.00 | 0.00 | 16 | 1013.2 |
| 20260906083659 | 76 | 40 | 5.0 | 7.0 | 0.00 | 0.00 | 0.00 | 15 | 1013.3 |
| 20260906083559 | 76 | 118 | 1.0 | 7.0 | 0.00 | 0.00 | 0.00 | 15 | 1013.3 |
| 20260906083459 | 76 | 139 | 2.0 | 7.0 | 0.00 | 0.00 | 0.00 | 15 | 1013.1 |
| 20260906083358 | 76 | 81 | 2.0 | 8.0 | 0.00 | 0.00 | 0.00 | 15 | 1013.2 |
| 20260906083258 | 76 | 107 | 1.0 | 10.0 | 0.00 | 0.00 | 0.00 | 15 | 1013.2 |
| 20260906083100 | 76 | 161 | 5.0 | 11.0 | 0.00 | 0.00 | 0.00 | 15 | 1013.2 |
| 20260906082959 | 76 | 109 | 3.0 | 11.0 | 0.00 | 0.00 | 0.00 | 15 | 1013.2 |
| 20260906082900 | 76 | 151 | 0.0 | 11.0 | 0.00 | 0.00 | 0.00 | 16 | 1013.4 |
| 20260906082758 | 76 | 144 | 1.0 | 11.0 | 0.00 | 0.00 | 0.00 | 15 | 1013.2 |
| 20260906082659 | 76 | 104 | 4.0 | 11.0 | 0.00 | 0.00 | 0.00 | 15 | 1013.3 |
| 20260906082558 | 76 | 128 | 3.0 | 11.0 | 0.00 | 0.00 | 0.00 | 15 | 1013.3 |
| 20260906082459 | 76 | 161 | 4.0 | 11.0 | 0.00 | 0.00 | 0.00 | 15 | 1013.3 |
| 20260906082359 | 76 | 138 | 3.0 | 11.0 | 0.00 | 0.00 | 0.00 | 15 | 1013.2 |
| 20260906082259 | 76 | 138 | 4.0 | 11.0 | 0.00 | 0.00 | 0.00 | 15 | 1013.2 |
| 20260906082158 | 76 | 214 | 4.0 | 8.0 | 0.00 | 0.00 | 0.00 | 15 | 1013.3 |
| 20260906082059 | 76 | 113 | 1.0 | 8.0 | 0.00 | 0.00 | 0.00 | 15 | 1013.2 |
| 20260906082000 | 76 | 153 | 1.0 | 8.0 | 0.00 | 0.00 | 0.00 | 15 | 1013.2 |
| 20260906081858 | 76 | 141 | 3.0 | 8.0 | 0.00 | 0.00 | 0.00 | 15 | 1013.2 |
| 20260906081759 | 76 | 116 | 4.0 | 8.0 | 0.00 | 0.00 | 0.00 | 15 | 1013.2 |
| 20260906081659 | 76 | 78 | 3.0 | 8.0 | 0.00 | 0.00 | 0.00 | 15 | 1013.2 |
| 20260906081459 | 76 | 139 | 6.0 | 9.0 | 0.00 | 0.00 | 0.00 | 15 | 1013.3 |
| 20260906081358 | 76 | 96 | 5.0 | 9.0 | 0.00 | 0.00 | 0.00 | 15 | 1013.2 |
| 20260906081259 | 76 | 163 | 6.0 | 9.0 | 0.00 | 0.00 | 0.00 | 15 | 1013.2 |
| 20260906081159 | 76 | 76 | 4.0 | 9.0 | 0.00 | 0.00 | 0.00 | 15 | 1013.3 |
| 20260906081059 | 76 | 119 | 3.0 | 9.0 | 0.00 | 0.00 | 0.00 | 15 | 1013.2 |
| 20260906080959 | 76 | 155 | 7.0 | 10.0 | 0.00 | 0.00 | 0.00 | 15 | 1013.3 |
| 20260906080859 | 76 | 150 | 1.0 | 10.0 | 0.00 | 0.00 | 0.00 | 15 | 1013.3 |
| 20260906080758 | 76 | 180 | 4.0 | 10.0 | 0.00 | 0.00 | 0.00 | 14 | 1013.3 |
| 20260906080658 | 76 | 144 | 6.0 | 10.0 | 0.00 | 0.00 | 0.00 | 15 | 1013.3 |
| 20260906080559 | 77 | 90 | 1.0 | 10.0 | 0.00 | 0.00 | 0.00 | 15 | 1013.3 |
| 20260906080358 | 77 | 136 | 3.0 | 10.0 | 0.00 | 0.00 | 0.00 | 15 | 1013.3 |
| 20260906080259 | 77 | 18 | 3.0 | 10.0 | 0.00 | 0.00 | 0.00 | 14 | 1013.3 |
| 20260906080159 | 77 | 106 | 3.0 | 10.0 | 0.00 | 0.00 | 0.00 | 15 | 1013.3 |
| 20260906080059 | 77 | 229 | 5.0 | 10.0 | 0.00 | 0.00 | 0.00 | 14 | 1013.4 |
| 20260906080004 | 77 | 142 | 3.0 | 7.0 | 0.00 | 0.00 | 0.00 | 15 | 1013.3 |
| 20260906075759 | 77 | 156 | 2.0 | 8.0 | 0.00 | 0.00 | 0.00 | 15 | 1013.2 |
| 20260906075559 | 77 | 63 | 0.0 | 8.0 | 0.00 | 0.00 | 0.00 | 14 | 1013.3 |
| 20260906075458 | 77 | 124 | 3.0 | 8.0 | 0.00 | 0.00 | 0.00 | 15 | 1013.3 |
| 20260906075359 | 77 | 191 | 8.0 | 8.0 | 0.00 | 0.00 | 0.00 | 14 | 1013.3 |
| 20260906075259 | 77 | 111 | 2.0 | 8.0 | 0.00 | 0.00 | 0.00 | 15 | 1013.3 |
| 20260906075158 | 77 | 121 | 2.0 | 8.0 | 0.00 | 0.00 | 0.00 | 14 | 1013.3 |
| 20260906075058 | 77 | 169 | 2.0 | 8.0 | 0.00 | 0.00 | 0.00 | 15 | 1013.3 |
| 20260906075000 | 77 | 96 | 7.0 | 10.0 | 0.00 | 0.00 | 0.00 | 15 | 1013.3 |
| 20260906074659 | 77 | 141 | 4.0 | 10.0 | 0.00 | 0.00 | 0.00 | 14 | 1013.4 |
| 20260906074559 | 77 | 122 | 2.0 | 10.0 | 0.00 | 0.00 | 0.00 | 14 | 1013.3 |
| 20260906074459 | 77 | 124 | 1.0 | 10.0 | 0.00 | 0.00 | 0.00 | 14 | 1013.3 |
| 20260906074259 | 78 | 155 | 2.0 | 10.0 | 0.00 | 0.00 | 0.00 | 14 | 1013.3 |
| 20260906074159 | 78 | 138 | 4.0 | 10.0 | 0.00 | 0.00 | 0.00 | 14 | 1013.4 |
| 20260906074059 | 78 | 128 | 4.0 | 8.0 | 0.00 | 0.00 | 0.00 | 13 | 1013.3 |
| 20260906073959 | 78 | 133 | 7.0 | 8.0 | 0.00 | 0.00 | 0.00 | 13 | 1013.3 |
| 20260906073858 | 78 | 132 | 4.0 | 8.0 | 0.00 | 0.00 | 0.00 | 13 | 1013.3 |
| 20260906073758 | 78 | 133 | 3.0 | 9.0 | 0.00 | 0.00 | 0.00 | 13 | 1013.3 |
| 20260906073658 | 78 | 175 | 2.0 | 9.0 | 0.00 | 0.00 | 0.00 | 14 | 1013.3 |
| 20260906073559 | 78 | 133 | 2.0 | 9.0 | 0.00 | 0.00 | 0.00 | 14 | 1013.3 |
| 20260906073458 | 78 | 153 | 1.0 | 13.0 | 0.00 | 0.00 | 0.00 | 14 | 1013.3 |
| 20260906073359 | 78 | 198 | 2.0 | 13.0 | 0.00 | 0.00 | 0.00 | 14 | 1013.4 |
| 20260906073258 | 78 | 143 | 6.0 | 13.0 | 0.00 | 0.00 | 0.00 | 13 | 1013.4 |
| 20260906073158 | 78 | 136 | 3.0 | 13.0 | 0.00 | 0.00 | 0.00 | 13 | 1013.3 |
| 20260906073059 | 78 | 65 | 3.0 | 13.0 | 0.00 | 0.00 | 0.00 | 13 | 1013.3 |
| 20260906073000 | 78 | 88 | 3.0 | 13.0 | 0.00 | 0.00 | 0.00 | 13 | 1013.4 |
| 20260906072859 | 78 | 101 | 5.0 | 13.0 | 0.00 | 0.00 | 0.00 | 13 | 1013.4 |
| 20260906072800 | 78 | 163 | 2.0 | 13.0 | 0.00 | 0.00 | 0.00 | 13 | 1013.4 |
| 20260906072658 | 78 | 129 | 3.0 | 13.0 | 0.00 | 0.00 | 0.00 | 14 | 1013.4 |
| 20260906072558 | 78 | 121 | 12.0 | 13.0 | 0.00 | 0.00 | 0.00 | 13 | 1013.4 |
| 20260906072501 | 78 | 143 | 5.0 | 13.0 | 0.00 | 0.00 | 0.00 | 13 | 1013.5 |
| 20260906072359 | 78 | 123 | 5.0 | 12.0 | 0.00 | 0.00 | 0.00 | 13 | 1013.4 |
| 20260906072259 | 78 | 69 | 1.0 | 12.0 | 0.00 | 0.00 | 0.00 | 13 | 1013.4 |
| 20260906072159 | 78 | 150 | 1.0 | 12.0 | 0.00 | 0.00 | 0.00 | 13 | 1013.4 |
| 20260906072058 | 78 | 150 | 7.0 | 12.0 | 0.00 | 0.00 | 0.00 | 13 | 1013.4 |
| 20260906071958 | 78 | 190 | 5.0 | 12.0 | 0.00 | 0.00 | 0.00 | 13 | 1013.5 |
| 20260906071758 | 77 | 94 | 1.0 | 12.0 | 0.00 | 0.00 | 0.00 | 13 | 1013.5 |
| 20260906071658 | 77 | 127 | 5.0 | 9.0 | 0.00 | 0.00 | 0.00 | 14 | 1013.4 |
| 20260906071558 | 77 | 134 | 2.0 | 9.0 | 0.00 | 0.00 | 0.00 | 13 | 1013.4 |
| 20260906071459 | 77 | 142 | 6.0 | 11.0 | 0.00 | 0.00 | 0.00 | 13 | 1013.4 |
| 20260906071359 | 77 | 132 | 8.0 | 11.0 | 0.00 | 0.00 | 0.00 | 13 | 1013.5 |
| 20260906071259 | 78 | 124 | 4.0 | 11.0 | 0.00 | 0.00 | 0.00 | 13 | 1013.4 |
| 20260906071159 | 78 | 147 | 5.0 | 11.0 | 0.00 | 0.00 | 0.00 | 13 | 1013.4 |
| 20260906070959 | 78 | 126 | 3.0 | 11.0 | 0.00 | 0.00 | 0.00 | 13 | 1013.4 |
| 20260906070858 | 78 | 98 | 5.0 | 11.0 | 0.00 | 0.00 | 0.00 | 13 | 1013.4 |
| 20260906070758 | 78 | 130 | 3.0 | 11.0 | 0.00 | 0.00 | 0.00 | 13 | 1013.4 |
| 20260906070558 | 77 | 101 | 6.0 | 9.0 | 0.00 | 0.00 | 0.00 | 13 | 1013.4 |
| 20260906070459 | 77 | 147 | 5.0 | 9.0 | 0.00 | 0.00 | 0.00 | 13 | 1013.3 |
| 20260906070359 | 77 | 103 | 4.0 | 10.0 | 0.00 | 0.00 | 0.00 | 13 | 1013.3 |
| 20260906070158 | 77 | 119 | 3.0 | 10.0 | 0.00 | 0.00 | 0.00 | 13 | 1013.4 |
| 20260906070058 | 77 | 228 | 2.0 | 10.0 | 0.00 | 0.00 | 0.00 | 13 | 1013.3 |
| 20260906070002 | 77 | 139 | 1.0 | 10.0 | 0.00 | 0.00 | 0.00 | 13 | 1013.4 |
| 20260906065859 | 77 | 143 | 4.0 | 10.0 | 0.00 | 0.00 | 0.00 | 13 | 1013.4 |
| 20260906065759 | 77 | 78 | 3.0 | 10.0 | 0.00 | 0.00 | 0.00 | 13 | 1013.4 |
| 20260906065659 | 77 | 124 | 1.0 | 7.0 | 0.00 | 0.00 | 0.00 | 13 | 1013.4 |
| 20260906065558 | 77 | 153 | 2.0 | 7.0 | 0.00 | 0.00 | 0.00 | 13 | 1013.4 |
| 20260906065500 | 77 | 132 | 4.0 | 7.0 | 0.00 | 0.00 | 0.00 | 13 | 1013.4 |
| 20260906065358 | 76 | 121 | 4.0 | 7.0 | 0.00 | 0.00 | 0.00 | 13 | 1013.4 |
| 20260906065259 | 76 | 95 | 2.0 | 7.0 | 0.00 | 0.00 | 0.00 | 13 | 1013.4 |
| 20260906065158 | 76 | 138 | 0.0 | 7.0 | 0.00 | 0.00 | 0.00 | 13 | 1013.4 |
| 20260906065058 | 76 | 108 | 3.0 | 7.0 | 0.00 | 0.00 | 0.00 | 13 | 1013.4 |
| 20260906064959 | 76 | 167 | 2.0 | 8.0 | 0.00 | 0.00 | 0.00 | 13 | 1013.4 |
| 20260906064858 | 76 | 115 | 7.0 | 7.0 | 0.00 | 0.00 | 0.00 | 13 | 1013.4 |
| 20260906064558 | 76 | 148 | 3.0 | 5.0 | 0.00 | 0.00 | 0.00 | 13 | 1013.3 |
| 20260906064458 | 76 | 124 | 3.0 | 7.0 | 0.00 | 0.00 | 0.00 | 13 | 1013.3 |
| 20260906064358 | 76 | 119 | 2.0 | 7.0 | 0.00 | 0.00 | 0.00 | 13 | 1013.3 |
| 20260906064159 | 76 | 68 | 2.0 | 7.0 | 0.00 | 0.00 | 0.00 | 14 | 1013.4 |
| 20260906064058 | 76 | 107 | 2.0 | 7.0 | 0.00 | 0.00 | 0.00 | 14 | 1013.4 |
| 20260906063959 | 76 | 163 | 1.0 | 7.0 | 0.00 | 0.00 | 0.00 | 14 | 1013.4 |
| 20260906063759 | 76 | 138 | 1.0 | 7.0 | 0.00 | 0.00 | 0.00 | 13 | 1013.4 |
| 20260906063659 | 76 | 120 | 3.0 | 7.0 | 0.00 | 0.00 | 0.00 | 13 | 1013.4 |
| 20260906063558 | 76 | 143 | 4.0 | 7.0 | 0.00 | 0.00 | 0.00 | 14 | 1013.4 |
| 20260906063459 | 76 | 142 | 0.0 | 7.0 | 0.00 | 0.00 | 0.00 | 13 | 1013.3 |
| 20260906063359 | 76 | 71 | 3.0 | 7.0 | 0.00 | 0.00 | 0.00 | 14 | 1013.3 |
| 20260906063259 | 76 | 99 | 2.0 | 7.0 | 0.00 | 0.00 | 0.00 | 13 | 1013.3 |
| 20260906063201 | 76 | 93 | 1.0 | 7.0 | 0.00 | 0.00 | 0.00 | 13 | 1013.3 |
| 20260906063058 | 76 | 121 | 1.0 | 7.0 | 0.00 | 0.00 | 0.00 | 14 | 1013.3 |
| 20260906062959 | 76 | 121 | 1.0 | 7.0 | 0.00 | 0.00 | 0.00 | 13 | 1013.3 |
| 20260906062859 | 76 | 155 | 0.0 | 7.0 | 0.00 | 0.00 | 0.00 | 14 | 1013.3 |
| 20260906062759 | 76 | 138 | 3.0 | 7.0 | 0.00 | 0.00 | 0.00 | 14 | 1013.3 |
| 20260906062659 | 76 | 148 | 5.0 | 7.0 | 0.00 | 0.00 | 0.00 | 14 | 1013.3 |
| 20260906062500 | 76 | 198 | 2.0 | 7.0 | 0.00 | 0.00 | 0.00 | 14 | 1013.2 |
| 20260906062400 | 76 | 65 | 3.0 | 7.0 | 0.00 | 0.00 | 0.00 | 14 | 1013.3 |
| 20260906062258 | 76 | 80 | 1.0 | 5.0 | 0.00 | 0.00 | 0.00 | 14 | 1013.2 |
| 20260906062158 | 76 | 92 | 1.0 | 5.0 | 0.00 | 0.00 | 0.00 | 14 | 1013.2 |
| 20260906062059 | 76 | 123 | 4.0 | 5.0 | 0.00 | 0.00 | 0.00 | 14 | 1013.2 |
| 20260906061959 | 76 | 138 | 1.0 | 5.0 | 0.00 | 0.00 | 0.00 | 13 | 1013.3 |
| 20260906061758 | 76 | 128 | 0.0 | 5.0 | 0.00 | 0.00 | 0.00 | 13 | 1013.2 |
| 20260906061558 | 77 | 101 | 1.0 | 4.0 | 0.00 | 0.00 | 0.00 | 14 | 1013.2 |
| 20260906061500 | 77 | 100 | 1.0 | 4.0 | 0.00 | 0.00 | 0.00 | 14 | 1013.2 |
| 20260906061258 | 77 | 88 | 1.0 | 4.0 | 0.00 | 0.00 | 0.00 | 13 | 1013.2 |
| 20260906061158 | 77 | 109 | 0.0 | 4.0 | 0.00 | 0.00 | 0.00 | 13 | 1013.1 |
| 20260906061059 | 77 | 103 | 1.0 | 4.0 | 0.00 | 0.00 | 0.00 | 13 | 1013.2 |
| 20260906060959 | 77 | 63 | 0.0 | 4.0 | 0.00 | 0.00 | 0.00 | 13 | 1013.2 |
| 20260906060859 | 77 | 117 | 2.0 | 4.0 | 0.00 | 0.00 | 0.00 | 13 | 1013.1 |
| 20260906060759 | 77 | 116 | 2.0 | 8.0 | 0.00 | 0.00 | 0.00 | 13 | 1013.2 |
| 20260906060658 | 77 | 189 | 1.0 | 8.0 | 0.00 | 0.00 | 0.00 | 13 | 1013.2 |
| 20260906060559 | 78 | 179 | 2.0 | 8.0 | 0.00 | 0.00 | 0.00 | 15 | 1013.2 |
| 20260906060459 | 78 | 132 | 3.0 | 8.0 | 0.00 | 0.00 | 0.00 | 12 | 1013.1 |
| 20260906060359 | 78 | 30 | 2.0 | 8.0 | 0.00 | 0.00 | 0.00 | 13 | 1013.2 |
| 20260906060200 | 78 | 140 | 1.0 | 8.0 | 0.00 | 0.00 | 0.00 | 12 | 1013.1 |
| 20260906060100 | 78 | 117 | 0.0 | 8.0 | 0.00 | 0.00 | 0.00 | 12 | 1013.1 |
| 20260906060005 | 78 | 119 | 3.0 | 8.0 | 0.00 | 0.00 | 0.00 | 12 | 1013.1 |
| 20260906055800 | 78 | 119 | 2.0 | 7.0 | 0.00 | 0.00 | 0.00 | 12 | 1013.1 |
| 20260906055601 | 78 | 165 | 2.0 | 9.0 | 0.00 | 0.00 | 0.00 | 13 | 1013.0 |
| 20260906055502 | 78 | 143 | 5.0 | 9.0 | 0.00 | 0.00 | 0.00 | 12 | 1013.0 |
| 20260906055400 | 78 | 137 | 1.0 | 9.0 | 0.00 | 0.00 | 0.00 | 12 | 1013.0 |
| 20260906055300 | 78 | 120 | 1.0 | 9.0 | 0.00 | 0.00 | 0.00 | 12 | 1013.0 |
| 20260906055100 | 78 | 102 | 1.0 | 9.0 | 0.00 | 0.00 | 0.00 | 12 | 1013.0 |
| 20260906055001 | 78 | 113 | 3.0 | 9.0 | 0.00 | 0.00 | 0.00 | 12 | 1013.0 |
| 20260906054900 | 78 | 117 | 2.0 | 9.0 | 0.00 | 0.00 | 0.00 | 12 | 1013.0 |
| 20260906054701 | 78 | 161 | 2.0 | 9.0 | 0.00 | 0.00 | 0.00 | 12 | 1012.9 |
| 20260906054601 | 78 | 115 | 5.0 | 9.0 | 0.00 | 0.00 | 0.00 | 12 | 1013.0 |
| 20260906054401 | 78 | 127 | 1.0 | 6.0 | 0.00 | 0.00 | 0.00 | 12 | 1013.0 |
| 20260906054300 | 78 | 86 | 1.0 | 6.0 | 0.00 | 0.00 | 0.00 | 12 | 1013.0 |
| 20260906054201 | 78 | 109 | 1.0 | 7.0 | 0.00 | 0.00 | 0.00 | 12 | 1012.9 |
| 20260906054100 | 78 | 83 | 2.0 | 7.0 | 0.00 | 0.00 | 0.00 | 12 | 1013.0 |
| 20260906054000 | 78 | 140 | 3.0 | 7.0 | 0.00 | 0.00 | 0.00 | 12 | 1012.9 |
| 20260906053900 | 78 | 158 | 3.0 | 10.0 | 0.00 | 0.00 | 0.00 | 12 | 1013.0 |
| 20260906053801 | 78 | 153 | 5.0 | 10.0 | 0.00 | 0.00 | 0.00 | 12 | 1012.9 |
| 20260906053700 | 78 | 170 | 2.0 | 10.0 | 0.00 | 0.00 | 0.00 | 12 | 1012.9 |
| 20260906053600 | 78 | 215 | 3.0 | 10.0 | 0.00 | 0.00 | 0.00 | 11 | 1013.0 |
| 20260906053500 | 78 | 167 | 2.0 | 10.0 | 0.00 | 0.00 | 0.00 | 12 | 1013.0 |
| 20260906053301 | 78 | 167 | 4.0 | 10.0 | 0.00 | 0.00 | 0.00 | 12 | 1012.9 |
| 20260906053201 | 78 | 131 | 5.0 | 10.0 | 0.00 | 0.00 | 0.00 | 12 | 1012.9 |
| 20260906053101 | 78 | 137 | 4.0 | 10.0 | 0.00 | 0.00 | 0.00 | 12 | 1013.0 |
| 20260906053002 | 78 | 121 | 2.0 | 8.0 | 0.00 | 0.00 | 0.00 | 12 | 1013.0 |
| 20260906052900 | 78 | 94 | 2.0 | 10.0 | 0.00 | 0.00 | 0.00 | 12 | 1012.9 |
| 20260906052800 | 78 | 88 | 3.0 | 10.0 | 0.00 | 0.00 | 0.00 | 12 | 1012.9 |
| 20260906052700 | 78 | 94 | 1.0 | 10.0 | 0.00 | 0.00 | 0.00 | 12 | 1012.9 |
| 20260906052601 | 78 | 48 | 3.0 | 10.0 | 0.00 | 0.00 | 0.00 | 12 | 1013.0 |
| 20260906052501 | 78 | 107 | 3.0 | 10.0 | 0.00 | 0.00 | 0.00 | 12 | 1013.0 |
| 20260906052202 | 77 | 90 | 3.0 | 10.0 | 0.00 | 0.00 | 0.00 | 12 | 1012.9 |
| 20260906052000 | 77 | 100 | 5.0 | 8.0 | 0.00 | 0.00 | 0.00 | 12 | 1013.0 |
| 20260906051902 | 77 | 40 | 2.0 | 8.0 | 0.00 | 0.00 | 0.00 | 12 | 1013.0 |
| 20260906051700 | 77 | 121 | 0.0 | 8.0 | 0.00 | 0.00 | 0.00 | 12 | 1013.0 |
| 20260906051600 | 77 | 88 | 0.0 | 8.0 | 0.00 | 0.00 | 0.00 | 12 | 1013.0 |
| 20260906051501 | 77 | 168 | 3.0 | 8.0 | 0.00 | 0.00 | 0.00 | 13 | 1013.0 |
| 20260906051401 | 77 | 114 | 3.0 | 7.0 | 0.00 | 0.00 | 0.00 | 12 | 1013.0 |
| 20260906051301 | 77 | 111 | 0.0 | 7.0 | 0.00 | 0.00 | 0.00 | 13 | 1013.1 |
| 20260906051100 | 77 | 111 | 5.0 | 8.0 | 0.00 | 0.00 | 0.00 | 12 | 1013.0 |
| 20260906051001 | 77 | 136 | 2.0 | 8.0 | 0.00 | 0.00 | 0.00 | 12 | 1013.0 |
| 20260906050900 | 77 | 84 | 3.0 | 6.0 | 0.00 | 0.00 | 0.00 | 13 | 1013.0 |
| 20260906050800 | 77 | 82 | 2.0 | 8.0 | 0.00 | 0.00 | 0.00 | 13 | 1013.0 |
| 20260906050700 | 77 | 44 | 2.0 | 8.0 | 0.00 | 0.00 | 0.00 | 13 | 1012.9 |
| 20260906050501 | 77 | 144 | 5.0 | 8.0 | 0.00 | 0.00 | 0.00 | 14 | 1013.0 |
| 20260906050401 | 77 | 169 | 1.0 | 8.0 | 0.00 | 0.00 | 0.00 | 13 | 1013.0 |
| 20260906050300 | 77 | 157 | 1.0 | 8.0 | 0.00 | 0.00 | 0.00 | 14 | 1012.9 |
| 20260906050201 | 77 | 129 | 1.0 | 8.0 | 0.00 | 0.00 | 0.00 | 14 | 1012.9 |
| 20260906050100 | 77 | 146 | 1.0 | 8.0 | 0.00 | 0.00 | 0.00 | 15 | 1012.9 |
| 20260906050005 | 77 | 160 | 3.0 | 8.0 | 0.00 | 0.00 | 0.00 | 13 | 1012.9 |
| 20260906045901 | 77 | 129 | 3.0 | 8.0 | 0.00 | 0.00 | 0.00 | 12 | 1012.9 |
| 20260906045700 | 77 | 88 | 1.0 | 5.0 | 0.00 | 0.00 | 0.00 | 13 | 1012.9 |
| 20260906045600 | 77 | 157 | 0.0 | 5.0 | 0.00 | 0.00 | 0.00 | 13 | 1013.0 |
| 20260906045501 | 77 | 151 | 3.0 | 5.0 | 0.00 | 0.00 | 0.00 | 13 | 1012.9 |
| 20260906045400 | 77 | 101 | 0.0 | 5.0 | 0.00 | 0.00 | 0.00 | 14 | 1012.9 |
| 20260906045301 | 77 | 115 | 1.0 | 5.0 | 0.00 | 0.00 | 0.00 | 13 | 1013.0 |
| 20260906045100 | 77 | 60 | 3.0 | 5.0 | 0.00 | 0.00 | 0.00 | 13 | 1013.0 |
| 20260906045001 | 77 | 122 | 2.0 | 5.0 | 0.00 | 0.00 | 0.00 | 13 | 1013.0 |
| 20260906044900 | 77 | 148 | 3.0 | 5.0 | 0.00 | 0.00 | 0.00 | 13 | 1013.0 |
| 20260906044800 | 77 | 129 | 2.0 | 5.0 | 0.00 | 0.00 | 0.00 | 13 | 1013.0 |
| 20260906044700 | 77 | 72 | 0.0 | 5.0 | 0.00 | 0.00 | 0.00 | 13 | 1013.1 |
| 20260906044600 | 77 | 71 | 1.0 | 8.0 | 0.00 | 0.00 | 0.00 | 15 | 1013.1 |
| 20260906044501 | 77 | 214 | 3.0 | 8.0 | 0.00 | 0.00 | 0.00 | 13 | 1013.0 |
| 20260906044401 | 77 | 208 | 5.0 | 8.0 | 0.00 | 0.00 | 0.00 | 14 | 1012.9 |
| 20260906044300 | 77 | 85 | 2.0 | 8.0 | 0.00 | 0.00 | 0.00 | 13 | 1013.0 |
| 20260906044200 | 77 | 36 | 2.0 | 8.0 | 0.00 | 0.00 | 0.00 | 13 | 1013.0 |
| 20260906044101 | 77 | 82 | 0.0 | 8.0 | 0.00 | 0.00 | 0.00 | 13 | 1013.0 |
| 20260906044001 | 77 | 154 | 3.0 | 8.0 | 0.00 | 0.00 | 0.00 | 13 | 1013.0 |
| 20260906043801 | 77 | 117 | 3.0 | 8.0 | 0.00 | 0.00 | 0.00 | 15 | 1012.9 |
| 20260906043700 | 77 | 167 | 1.0 | 8.0 | 0.00 | 0.00 | 0.00 | 13 | 1012.8 |
| 20260906043400 | 77 | 117 | 2.0 | 7.0 | 0.00 | 0.00 | 0.00 | 13 | 1012.8 |
| 20260906043301 | 77 | 93 | 2.0 | 7.0 | 0.00 | 0.00 | 0.00 | 13 | 1012.8 |
| 20260906043200 | 77 | 130 | 1.0 | 7.0 | 0.00 | 0.00 | 0.00 | 13 | 1012.8 |
| 20260906043100 | 78 | 133 | 0.0 | 7.0 | 0.00 | 0.00 | 0.00 | 14 | 1012.8 |
| 20260906042901 | 78 | 175 | 3.0 | 10.0 | 0.00 | 0.00 | 0.00 | 13 | 1012.8 |
| 20260906042800 | 78 | 86 | 1.0 | 9.0 | 0.00 | 0.00 | 0.00 | 13 | 1012.7 |
| 20260906042500 | 78 | 163 | 3.0 | 9.0 | 0.00 | 0.00 | 0.00 | 15 | 1012.8 |
| 20260906042400 | 78 | 167 | 1.0 | 9.0 | 0.00 | 0.00 | 0.00 | 13 | 1012.8 |
| 20260906042301 | 78 | 143 | 3.0 | 9.0 | 0.00 | 0.00 | 0.00 | 14 | 1012.8 |
| 20260906042101 | 78 | 164 | 2.0 | 9.0 | 0.00 | 0.00 | 0.00 | 19 | 1012.7 |
| 20260906042001 | 78 | 52 | 4.0 | 9.0 | 0.00 | 0.00 | 0.00 | 19 | 1012.8 |
| 20260906041900 | 78 | 187 | 4.0 | 8.0 | 0.00 | 0.00 | 0.00 | 15 | 1012.8 |
| 20260906041802 | 78 | 67 | 1.0 | 8.0 | 0.00 | 0.00 | 0.00 | 13 | 1012.7 |
| 20260906041701 | 78 | 71 | 3.0 | 8.0 | 0.00 | 0.00 | 0.00 | 13 | 1012.8 |
| 20260906041601 | 78 | 74 | 2.0 | 8.0 | 0.00 | 0.00 | 0.00 | 13 | 1012.8 |
| 20260906041502 | 78 | 84 | 3.0 | 8.0 | 0.00 | 0.00 | 0.00 | 13 | 1012.8 |
| 20260906041400 | 77 | 122 | 3.0 | 8.0 | 0.00 | 0.00 | 0.00 | 14 | 1012.7 |
| 20260906041300 | 77 | 95 | 1.0 | 8.0 | 0.00 | 0.00 | 0.00 | 13 | 1012.7 |
| 20260906041201 | 78 | 63 | 2.0 | 4.0 | 0.00 | 0.00 | 0.00 | 13 | 1012.7 |
| 20260906041100 | 78 | 56 | 3.0 | 4.0 | 0.00 | 0.00 | 0.00 | 14 | 1012.7 |
| 20260906041001 | 78 | 45 | 2.0 | 5.0 | 0.00 | 0.00 | 0.00 | 14 | 1012.8 |
| 20260906040701 | 78 | 69 | 1.0 | 7.0 | 0.00 | 0.00 | 0.00 | 13 | 1012.7 |
| 20260906040600 | 78 | 107 | 1.0 | 7.0 | 0.00 | 0.00 | 0.00 | 13 | 1012.7 |
| 20260906040500 | 78 | 94 | 1.0 | 7.0 | 0.00 | 0.00 | 0.00 | 13 | 1012.6 |
| 20260906040401 | 78 | 70 | 4.0 | 7.0 | 0.00 | 0.00 | 0.00 | 13 | 1012.7 |
| 20260906040301 | 78 | 157 | 2.0 | 7.0 | 0.00 | 0.00 | 0.00 | 15 | 1012.7 |
| 20260906040201 | 78 | 168 | 1.0 | 7.0 | 0.00 | 0.00 | 0.00 | 13 | 1012.7 |
| 20260906040100 | 78 | 149 | 1.0 | 7.0 | 0.00 | 0.00 | 0.00 | 13 | 1012.7 |
| 20260906040004 | 78 | 136 | 4.0 | 7.0 | 0.00 | 0.00 | 0.00 | 12 | 1012.7 |
| 20260906035900 | 78 | 78 | 0.0 | 7.0 | 0.00 | 0.00 | 0.00 | 13 | 1012.7 |
| 20260906035801 | 78 | 78 | 2.0 | 6.0 | 0.00 | 0.00 | 0.00 | 14 | 1012.6 |
| 20260906035700 | 78 | 128 | 2.0 | 6.0 | 0.00 | 0.00 | 0.00 | 13 | 1012.6 |
| 20260906035401 | 78 | 151 | 1.0 | 6.0 | 0.00 | 0.00 | 0.00 | 13 | 1012.6 |
| 20260906035300 | 78 | 96 | 0.0 | 6.0 | 0.00 | 0.00 | 0.00 | 13 | 1012.6 |
| 20260906035201 | 78 | 89 | 1.0 | 6.0 | 0.00 | 0.00 | 0.00 | 13 | 1012.6 |
| 20260906035101 | 78 | 137 | 3.0 | 6.0 | 0.00 | 0.00 | 0.00 | 13 | 1012.6 |
| 20260906035001 | 78 | 86 | 1.0 | 6.0 | 0.00 | 0.00 | 0.00 | 12 | 1012.6 |
| 20260906034900 | 78 | 140 | 1.0 | 7.0 | 0.00 | 0.00 | 0.00 | 12 | 1012.6 |
| 20260906034800 | 78 | 77 | 2.0 | 7.0 | 0.00 | 0.00 | 0.00 | 12 | 1012.6 |
| 20260906034700 | 78 | 84 | 2.0 | 7.0 | 0.00 | 0.00 | 0.00 | 13 | 1012.5 |
| 20260906034600 | 78 | 84 | 0.0 | 7.0 | 0.00 | 0.00 | 0.00 | 13 | 1012.5 |
| 20260906034500 | 78 | 115 | 2.0 | 7.0 | 0.00 | 0.00 | 0.00 | 14 | 1012.5 |
| 20260906034401 | 79 | 117 | 2.0 | 7.0 | 0.00 | 0.00 | 0.00 | 13 | 1012.5 |
| 20260906034300 | 79 | 86 | 1.0 | 7.0 | 0.00 | 0.00 | 0.00 | 13 | 1012.5 |
| 20260906034200 | 79 | 130 | 1.0 | 6.0 | 0.00 | 0.00 | 0.00 | 14 | 1012.5 |
| 20260906034100 | 79 | 141 | 6.0 | 7.0 | 0.00 | 0.00 | 0.00 | 13 | 1012.5 |
| 20260906034002 | 79 | 86 | 1.0 | 7.0 | 0.00 | 0.00 | 0.00 | 13 | 1012.5 |
| 20260906033901 | 79 | 92 | 5.0 | 7.0 | 0.00 | 0.00 | 0.00 | 12 | 1012.5 |
| 20260906033800 | 79 | 177 | 1.0 | 5.0 | 0.00 | 0.00 | 0.00 | 13 | 1012.5 |
| 20260906033701 | 79 | 101 | 3.0 | 6.0 | 0.00 | 0.00 | 0.00 | 12 | 1012.5 |
| 20260906033601 | 79 | 188 | 1.0 | 6.0 | 0.00 | 0.00 | 0.00 | 13 | 1012.5 |
| 20260906033501 | 79 | 98 | 2.0 | 6.0 | 0.00 | 0.00 | 0.00 | 15 | 1012.5 |
| 20260906033401 | 79 | 128 | 3.0 | 6.0 | 0.00 | 0.00 | 0.00 | 12 | 1012.4 |
| 20260906033200 | 79 | 86 | 1.0 | 6.0 | 0.00 | 0.00 | 0.00 | 13 | 1012.5 |
| 20260906033100 | 79 | 99 | 0.0 | 6.0 | 0.00 | 0.00 | 0.00 | 12 | 1012.4 |
| 20260906033001 | 78 | 84 | 0.0 | 6.0 | 0.00 | 0.00 | 0.00 | 12 | 1012.4 |
| 20260906032900 | 78 | 136 | 4.0 | 6.0 | 0.00 | 0.00 | 0.00 | 13 | 1012.4 |
| 20260906032800 | 78 | 32 | 2.0 | 4.0 | 0.00 | 0.00 | 0.00 | 13 | 1012.4 |
| 20260906032701 | 78 | 63 | 2.0 | 5.0 | 0.00 | 0.00 | 0.00 | 13 | 1012.4 |
| 20260906032600 | 78 | 97 | 1.0 | 5.0 | 0.00 | 0.00 | 0.00 | 12 | 1012.4 |
| 20260906032501 | 78 | 94 | 1.0 | 5.0 | 0.00 | 0.00 | 0.00 | 13 | 1012.4 |
| 20260906032401 | 78 | 97 | 0.0 | 5.0 | 0.00 | 0.00 | 0.00 | 12 | 1012.4 |
| 20260906032301 | 78 | 110 | 2.0 | 5.0 | 0.00 | 0.00 | 0.00 | 12 | 1012.4 |
| 20260906032201 | 78 | 144 | 1.0 | 5.0 | 0.00 | 0.00 | 0.00 | 13 | 1012.4 |
| 20260906032100 | 78 | 88 | 2.0 | 5.0 | 0.00 | 0.00 | 0.00 | 14 | 1012.4 |
| 20260906032001 | 78 | 122 | 3.0 | 9.0 | 0.00 | 0.00 | 0.00 | 13 | 1012.4 |
| 20260906031900 | 78 | 142 | 3.0 | 9.0 | 0.00 | 0.00 | 0.00 | 15 | 1012.3 |
| 20260906031801 | 78 | 97 | 2.0 | 9.0 | 0.00 | 0.00 | 0.00 | 14 | 1012.3 |
| 20260906031702 | 78 | 44 | 3.0 | 9.0 | 0.00 | 0.00 | 0.00 | 14 | 1012.3 |
| 20260906031600 | 78 | 55 | 4.0 | 9.0 | 0.00 | 0.00 | 0.00 | 14 | 1012.4 |
| 20260906031500 | 78 | 70 | 2.0 | 9.0 | 0.00 | 0.00 | 0.00 | 14 | 1012.4 |
| 20260906031401 | 78 | 144 | 4.0 | 9.0 | 0.00 | 0.00 | 0.00 | 15 | 1012.4 |
| 20260906031201 | 78 | 43 | 1.0 | 9.0 | 0.00 | 0.00 | 0.00 | 14 | 1012.3 |
| 20260906031100 | 78 | 52 | 3.0 | 8.0 | 0.00 | 0.00 | 0.00 | 13 | 1012.3 |
| 20260906031001 | 78 | 104 | 2.0 | 8.0 | 0.00 | 0.00 | 0.00 | 13 | 1012.3 |
| 20260906030801 | 78 | 153 | 4.0 | 8.0 | 0.00 | 0.00 | 0.00 | 15 | 1012.3 |
| 20260906030701 | 78 | 90 | 0.0 | 8.0 | 0.00 | 0.00 | 0.00 | 14 | 1012.3 |
| 20260906030601 | 78 | 49 | 2.0 | 8.0 | 0.00 | 0.00 | 0.00 | 14 | 1012.3 |
| 20260906030502 | 78 | 125 | 2.0 | 8.0 | 0.00 | 0.00 | 0.00 | 14 | 1012.3 |
| 20260906030401 | 77 | 138 | 0.0 | 9.0 | 0.00 | 0.00 | 0.00 | 15 | 1012.3 |
| 20260906030301 | 77 | 123 | 3.0 | 9.0 | 0.00 | 0.00 | 0.00 | 14 | 1012.3 |
| 20260906030101 | 77 | 41 | 1.0 | 9.0 | 0.00 | 0.00 | 0.00 | 14 | 1012.3 |
| 20260906030004 | 77 | 61 | 3.0 | 9.0 | 0.00 | 0.00 | 0.00 | 14 | 1012.3 |
| 20260906025900 | 77 | 44 | 2.0 | 9.0 | 0.00 | 0.00 | 0.00 | 14 | 1012.3 |
| 20260906025801 | 77 | 56 | 1.0 | 9.0 | 0.00 | 0.00 | 0.00 | 14 | 1012.3 |
| 20260906025700 | 77 | 88 | 6.0 | 9.0 | 0.00 | 0.00 | 0.00 | 14 | 1012.3 |
| 20260906025601 | 77 | 82 | 1.0 | 9.0 | 0.00 | 0.00 | 0.00 | 14 | 1012.2 |
| 20260906025200 | 76 | 44 | 3.0 | 7.0 | 0.00 | 0.00 | 0.00 | 15 | 1012.2 |
| 20260906025101 | 76 | 55 | 3.0 | 7.0 | 0.00 | 0.00 | 0.00 | 15 | 1012.2 |
| 20260906025001 | 76 | 104 | 2.0 | 7.0 | 0.00 | 0.00 | 0.00 | 16 | 1012.2 |
| 20260906024900 | 76 | 51 | 5.0 | 7.0 | 0.00 | 0.00 | 0.00 | 15 | 1012.2 |
| 20260906024800 | 76 | 103 | 2.0 | 5.0 | 0.00 | 0.00 | 0.00 | 16 | 1012.2 |
| 20260906024700 | 76 | 142 | 1.0 | 5.0 | 0.00 | 0.00 | 0.00 | 16 | 1012.2 |
| 20260906024601 | 76 | 130 | 1.0 | 5.0 | 0.00 | 0.00 | 0.00 | 16 | 1012.1 |
| 20260906024400 | 76 | 22 | 4.0 | 5.0 | 0.00 | 0.00 | 0.00 | 16 | 1012.1 |
| 20260906024301 | 75 | 80 | 6.0 | 6.0 | 0.00 | 0.00 | 0.00 | 17 | 1012.0 |
| 20260906024201 | 76 | 72 | 4.0 | 5.0 | 0.00 | 0.00 | 0.00 | 17 | 1012.1 |
| 20260906024100 | 76 | 84 | 2.0 | 5.0 | 0.00 | 0.00 | 0.00 | 16 | 1012.0 |
| 20260906024002 | 75 | 60 | 2.0 | 5.0 | 0.00 | 0.00 | 0.00 | 16 | 1012.0 |
| 20260906023901 | 75 | 74 | 1.0 | 5.0 | 0.00 | 0.00 | 0.00 | 16 | 1012.0 |
| 20260906023701 | 75 | 85 | 0.0 | 5.0 | 0.00 | 0.00 | 0.00 | 16 | 1012.0 |
| 20260906023600 | 75 | 73 | 3.0 | 5.0 | 0.00 | 0.00 | 0.00 | 16 | 1012.0 |
| 20260906023501 | 75 | 63 | 4.0 | 5.0 | 0.00 | 0.00 | 0.00 | 16 | 1012.0 |
| 20260906023100 | 75 | 44 | 3.0 | 5.0 | 0.00 | 0.00 | 0.00 | 16 | 1012.0 |
| 20260906022900 | 75 | 62 | 3.0 | 5.0 | 0.00 | 0.00 | 0.00 | 17 | 1012.0 |
| 20260906022800 | 75 | 75 | 3.0 | 4.0 | 0.00 | 0.00 | 0.00 | 17 | 1012.0 |
| 20260906022700 | 75 | 41 | 2.0 | 4.0 | 0.00 | 0.00 | 0.00 | 17 | 1012.0 |
| 20260906022501 | 75 | 61 | 1.0 | 4.0 | 0.00 | 0.00 | 0.00 | 18 | 1011.9 |
| 20260906022400 | 75 | 51 | 0.0 | 4.0 | 0.00 | 0.00 | 0.00 | 18 | 1011.9 |
| 20260906022301 | 75 | 51 | 1.0 | 4.0 | 0.00 | 0.00 | 0.00 | 17 | 1011.9 |
| 20260906022200 | 75 | 51 | 1.0 | 4.0 | 0.00 | 0.00 | 0.00 | 17 | 1011.9 |
| 20260906022101 | 75 | 46 | 3.0 | 4.0 | 0.00 | 0.00 | 0.00 | 19 | 1011.9 |
| 20260906022001 | 75 | 53 | 2.0 | 4.0 | 0.00 | 0.00 | 0.00 | 18 | 1011.9 |
| 20260906021601 | 75 | 63 | 3.0 | 4.0 | 0.00 | 0.00 | 0.00 | 19 | 1011.9 |
| 20260906021501 | 75 | 44 | 2.0 | 4.0 | 0.00 | 0.00 | 0.00 | 19 | 1011.9 |
| 20260906021401 | 75 | 63 | 2.0 | 4.0 | 0.00 | 0.00 | 0.00 | 17 | 1011.9 |
| 20260906021301 | 75 | 77 | 2.0 | 4.0 | 0.00 | 0.00 | 0.00 | 17 | 1011.9 |
| 20260906021201 | 75 | 91 | 2.0 | 4.0 | 0.00 | 0.00 | 0.00 | 20 | 1011.9 |
| 20260906021100 | 75 | 69 | 1.0 | 4.0 | 0.00 | 0.00 | 0.00 | 18 | 1011.9 |
| 20260906021001 | 75 | 70 | 1.0 | 2.0 | 0.00 | 0.00 | 0.00 | 17 | 1011.9 |
| 20260906020901 | 75 | 70 | 0.0 | 2.0 | 0.00 | 0.00 | 0.00 | 17 | 1011.9 |
| 20260906020800 | 75 | 63 | 1.0 | 2.0 | 0.00 | 0.00 | 0.00 | 21 | 1011.9 |
| 20260906020701 | 75 | 50 | 1.0 | 2.0 | 0.00 | 0.00 | 0.00 | 19 | 1011.9 |
| 20260906020600 | 75 | 49 | 0.0 | 2.0 | 0.00 | 0.00 | 0.00 | 21 | 1011.9 |
| 20260906020502 | 75 | 50 | 0.0 | 2.0 | 0.00 | 0.00 | 0.00 | 20 | 1011.9 |
| 20260906020400 | 76 | 50 | 0.0 | 2.0 | 0.00 | 0.00 | 0.00 | 21 | 1011.9 |
| 20260906020302 | 76 | 50 | 0.0 | 2.0 | 0.00 | 0.00 | 0.00 | 20 | 1011.9 |
| 20260906020201 | 76 | 50 | 0.0 | 2.0 | 0.00 | 0.00 | 0.00 | 18 | 1011.9 |
| 20260906020100 | 76 | 50 | 0.0 | 3.0 | 0.00 | 0.00 | 0.00 | 21 | 1011.9 |
| 20260906020005 | 76 | 50 | 0.0 | 3.0 | 0.00 | 0.00 | 0.00 | 20 | 1011.9 |
| 20260906015901 | 76 | 50 | 0.0 | 3.0 | 0.00 | 0.00 | 0.00 | 19 | 1011.9 |
| 20260906015801 | 76 | 50 | 1.0 | 3.0 | 0.00 | 0.00 | 0.00 | 19 | 1011.9 |
| 20260906015600 | 76 | 48 | 0.0 | 3.0 | 0.00 | 0.00 | 0.00 | 19 | 1011.9 |
| 20260906015400 | 76 | 48 | 0.0 | 3.0 | 0.00 | 0.00 | 0.00 | 19 | 1011.9 |
| 20260906015301 | 76 | 48 | 1.0 | 3.0 | 0.00 | 0.00 | 0.00 | 20 | 1011.9 |
| 20260906015200 | 76 | 63 | 3.0 | 3.0 | 0.00 | 0.00 | 0.00 | 19 | 1011.9 |
| 20260906015100 | 76 | 55 | 2.0 | 2.0 | 0.00 | 0.00 | 0.00 | 18 | 1011.9 |
| 20260906015000 | 76 | 51 | 0.0 | 2.0 | 0.00 | 0.00 | 0.00 | 19 | 1011.9 |
| 20260906014901 | 76 | 60 | 2.0 | 2.0 | 0.00 | 0.00 | 0.00 | 18 | 1012.0 |
| 20260906014801 | 77 | 73 | 1.0 | 3.0 | 0.00 | 0.00 | 0.00 | 19 | 1011.9 |
| 20260906014701 | 77 | 63 | 0.0 | 3.0 | 0.00 | 0.00 | 0.00 | 19 | 1011.9 |
| 20260906014601 | 77 | 45 | 1.0 | 3.0 | 0.00 | 0.00 | 0.00 | 17 | 1012.0 |
| 20260906014501 | 77 | 45 | 0.0 | 3.0 | 0.00 | 0.00 | 0.00 | 18 | 1011.9 |
| 20260906014401 | 77 | 45 | 0.0 | 3.0 | 0.00 | 0.00 | 0.00 | 19 | 1011.9 |
| 20260906014301 | 77 | 45 | 0.0 | 3.0 | 0.00 | 0.00 | 0.00 | 19 | 1011.9 |
| 20260906014201 | 77 | 45 | 0.0 | 3.0 | 0.00 | 0.00 | 0.00 | 19 | 1012.0 |
| 20260906014101 | 77 | 45 | 0.0 | 3.0 | 0.00 | 0.00 | 0.00 | 20 | 1011.9 |
| 20260906014001 | 77 | 45 | 0.0 | 3.0 | 0.00 | 0.00 | 0.00 | 18 | 1012.0 |
| 20260906013801 | 77 | 56 | 1.0 | 3.0 | 0.00 | 0.00 | 0.00 | 19 | 1012.0 |
| 20260906013600 | 78 | 49 | 1.0 | 3.0 | 0.00 | 0.00 | 0.00 | 18 | 1012.0 |
| 20260906013501 | 78 | 214 | 0.0 | 2.0 | 0.00 | 0.00 | 0.00 | 16 | 1012.0 |
| 20260906013400 | 78 | 214 | 0.0 | 2.0 | 0.00 | 0.00 | 0.00 | 15 | 1012.0 |
| 20260906013300 | 78 | 214 | 0.0 | 2.0 | 0.00 | 0.00 | 0.00 | 15 | 1012.0 |
| 20260906013201 | 78 | 214 | 1.0 | 2.0 | 0.00 | 0.00 | 0.00 | 16 | 1012.0 |
| 20260906013101 | 78 | 218 | 0.0 | 2.0 | 0.00 | 0.00 | 0.00 | 17 | 1012.0 |
| 20260906013000 | 78 | 218 | 1.0 | 2.0 | 0.00 | 0.00 | 0.00 | 16 | 1012.0 |
| 20260906012901 | 78 | 241 | 0.0 | 2.0 | 0.00 | 0.00 | 0.00 | 17 | 1012.0 |
| 20260906012800 | 78 | 241 | 1.0 | 2.0 | 0.00 | 0.00 | 0.00 | 20 | 1012.0 |
| 20260906012700 | 78 | 208 | 0.0 | 1.0 | 0.00 | 0.00 | 0.00 | 16 | 1012.0 |
| 20260906012601 | 78 | 208 | 0.0 | 1.0 | 0.00 | 0.00 | 0.00 | 16 | 1012.0 |
| 20260906012502 | 78 | 208 | 0.0 | 1.0 | 0.00 | 0.00 | 0.00 | 18 | 1012.1 |
| 20260906012300 | 79 | 208 | 0.0 | 1.0 | 0.00 | 0.00 | 0.00 | 15 | 1012.1 |
| 20260906012200 | 79 | 209 | 0.0 | 1.0 | 0.00 | 0.00 | 0.00 | 13 | 1012.1 |
| 20260906012100 | 79 | 209 | 0.0 | 1.0 | 0.00 | 0.00 | 0.00 | 15 | 1012.1 |
| 20260906012000 | 79 | 209 | 0.0 | 1.0 | 0.00 | 0.00 | 0.00 | 14 | 1012.1 |
| 20260906011901 | 79 | 209 | 0.0 | 1.0 | 0.00 | 0.00 | 0.00 | 16 | 1012.1 |
| 20260906011800 | 79 | 209 | 0.0 | 1.0 | 0.00 | 0.00 | 0.00 | 14 | 1012.1 |
| 20260906011700 | 79 | 209 | 0.0 | 4.0 | 0.00 | 0.00 | 0.00 | 14 | 1012.1 |
| 20260906011601 | 79 | 209 | 0.0 | 4.0 | 0.00 | 0.00 | 0.00 | 14 | 1012.2 |
| 20260906011501 | 79 | 209 | 1.0 | 4.0 | 0.00 | 0.00 | 0.00 | 13 | 1012.2 |
| 20260906011400 | 79 | 296 | 0.0 | 4.0 | 0.00 | 0.00 | 0.00 | 15 | 1012.2 |
| 20260906011300 | 79 | 296 | 0.0 | 5.0 | 0.00 | 0.00 | 0.00 | 14 | 1012.2 |
| 20260906011201 | 79 | 296 | 1.0 | 5.0 | 0.00 | 0.00 | 0.00 | 14 | 1012.2 |
| 20260906011101 | 79 | 296 | 0.0 | 5.0 | 0.00 | 0.00 | 0.00 | 14 | 1012.2 |
| 20260906011001 | 79 | 296 | 0.0 | 5.0 | 0.00 | 0.00 | 0.00 | 15 | 1012.2 |
| 20260906010902 | 79 | 296 | 1.0 | 5.0 | 0.00 | 0.00 | 0.00 | 14 | 1012.2 |
| 20260906010700 | 80 | 268 | 2.0 | 5.0 | 0.00 | 0.00 | 0.00 | 15 | 1012.2 |
| 20260906010601 | 80 | 243 | 2.0 | 5.0 | 0.00 | 0.00 | 0.00 | 15 | 1012.2 |
| 20260906010501 | 80 | 309 | 0.0 | 5.0 | 0.00 | 0.00 | 0.00 | 15 | 1012.2 |
| 20260906010359 | 80 | 250 | 4.0 | 4.0 | 0.00 | 0.00 | 0.00 | 14 | 1012.2 |
| 20260906010200 | 80 | 184 | 3.0 | 4.0 | 0.00 | 0.00 | 0.00 | 14 | 1012.2 |
| 20260906010059 | 80 | 266 | 1.0 | 4.0 | 0.00 | 0.00 | 0.00 | 15 | 1012.2 |
| 20260906010004 | 80 | 214 | 2.0 | 7.0 | 0.00 | 0.00 | 0.00 | 17 | 1012.2 |
| 20260906005901 | 80 | 202 | 1.0 | 7.0 | 0.00 | 0.00 | 0.00 | 17 | 1012.2 |
| 20260906005701 | 81 | 184 | 1.0 | 7.0 | 0.00 | 0.00 | 0.00 | 16 | 1012.2 |
| 20260906005600 | 81 | 201 | 0.0 | 7.0 | 0.00 | 0.00 | 0.00 | 15 | 1012.2 |
| 20260906005500 | 81 | 283 | 0.0 | 7.0 | 0.00 | 0.00 | 0.00 | 15 | 1012.1 |
| 20260906005359 | 81 | 303 | 0.0 | 7.0 | 0.00 | 0.00 | 0.00 | 17 | 1012.2 |
| 20260906005200 | 81 | 200 | 2.0 | 8.0 | 0.00 | 0.00 | 0.00 | 15 | 1012.2 |
| 20260906005100 | 81 | 176 | 4.0 | 8.0 | 0.00 | 0.00 | 0.00 | 17 | 1012.2 |
| 20260906005000 | 81 | 234 | 5.0 | 8.0 | 0.00 | 0.00 | 0.00 | 17 | 1012.2 |
| 20260906004901 | 82 | 229 | 4.0 | 8.0 | 0.00 | 0.00 | 0.00 | 18 | 1012.2 |
| 20260906004800 | 82 | 188 | 3.0 | 8.0 | 0.00 | 0.00 | 0.00 | 16 | 1012.2 |
| 20260906004700 | 82 | 279 | 1.0 | 8.0 | 0.00 | 0.00 | 0.00 | 17 | 1012.2 |
| 20260906004600 | 82 | 266 | 2.0 | 8.0 | 0.00 | 0.00 | 0.00 | 17 | 1012.2 |
| 20260906004400 | 82 | 199 | 3.0 | 8.0 | 0.00 | 0.00 | 0.00 | 18 | 1012.2 |
| 20260906004300 | 82 | 230 | 5.0 | 7.0 | 0.00 | 0.00 | 0.00 | 18 | 1012.2 |
| 20260906004159 | 83 | 161 | 3.0 | 7.0 | 0.00 | 0.00 | 0.00 | 16 | 1012.2 |
| 20260906004100 | 83 | 273 | 4.0 | 7.0 | 0.00 | 0.00 | 0.00 | 11 | 1012.2 |
| 20260906004000 | 83 | 211 | 3.0 | 6.0 | 0.00 | 0.00 | 0.00 | 13 | 1012.2 |
| 20260906003900 | 83 | 260 | 1.0 | 6.0 | 0.00 | 0.00 | 0.00 | 13 | 1012.2 |
| 20260906003800 | 83 | 241 | 2.0 | 6.0 | 0.00 | 0.00 | 0.00 | 14 | 1012.2 |
| 20260906003700 | 83 | 207 | 2.0 | 6.0 | 0.00 | 0.00 | 0.00 | 16 | 1012.3 |
| 20260906003500 | 83 | 257 | 4.0 | 6.0 | 0.00 | 0.00 | 0.00 | 12 | 1012.2 |
| 20260906003359 | 84 | 188 | 4.0 | 8.0 | 0.00 | 0.00 | 0.00 | 14 | 1012.3 |
| 20260906003300 | 84 | 213 | 1.0 | 10.0 | 0.00 | 0.00 | 0.00 | 15 | 1012.3 |
| 20260906003159 | 84 | 225 | 4.0 | 10.0 | 0.00 | 0.00 | 0.00 | 16 | 1012.3 |
| 20260906003100 | 84 | 245 | 2.0 | 10.0 | 0.00 | 0.00 | 0.00 | 13 | 1012.3 |
| 20260906003000 | 84 | 218 | 5.0 | 10.0 | 0.00 | 0.00 | 0.00 | 11 | 1012.3 |
| 20260906002900 | 84 | 180 | 3.0 | 10.0 | 0.00 | 0.00 | 0.00 | 10 | 1012.3 |
| 20260906002759 | 84 | 201 | 5.0 | 10.0 | 0.00 | 0.00 | 0.00 | 10 | 1012.3 |
| 20260906002600 | 84 | 275 | 6.0 | 10.0 | 0.00 | 0.00 | 0.00 | 10 | 1012.3 |
| 20260906002500 | 84 | 217 | 5.0 | 10.0 | 0.00 | 0.00 | 0.00 | 10 | 1012.3 |
| 20260906002300 | 84 | 246 | 2.0 | 9.0 | 0.00 | 0.00 | 0.00 | 10 | 1012.3 |
| 20260906002201 | 84 | 271 | 2.0 | 9.0 | 0.00 | 0.00 | 0.00 | 10 | 1012.2 |
| 20260906002059 | 84 | 289 | 3.0 | 9.0 | 0.00 | 0.00 | 0.00 | 11 | 1012.3 |
| 20260906002001 | 84 | 245 | 3.0 | 9.0 | 0.00 | 0.00 | 0.00 | 11 | 1012.3 |
| 20260906001800 | 84 | 233 | 6.0 | 9.0 | 0.00 | 0.00 | 0.00 | 12 | 1012.4 |
| 20260906001659 | 84 | 298 | 4.0 | 8.0 | 0.00 | 0.00 | 0.00 | 12 | 1012.4 |
| 20260906001559 | 84 | 323 | 1.0 | 14.0 | 0.00 | 0.00 | 0.00 | 12 | 1012.3 |
| 20260906001500 | 84 | 223 | 2.0 | 14.0 | 0.00 | 0.00 | 0.00 | 11 | 1012.4 |
| 20260906001400 | 84 | 261 | 5.0 | 14.0 | 0.00 | 0.00 | 0.00 | 10 | 1012.4 |
| 20260906001300 | 84 | 252 | 3.0 | 14.0 | 0.00 | 0.00 | 0.00 | 10 | 1012.4 |
| 20260906001000 | 84 | 169 | 8.0 | 14.0 | 0.00 | 0.00 | 0.00 | 10 | 1012.4 |
| 20260906000859 | 84 | 213 | 3.0 | 14.0 | 0.00 | 0.00 | 0.00 | 11 | 1012.4 |
| 20260906000801 | 84 | 202 | 3.0 | 14.0 | 0.00 | 0.00 | 0.00 | 10 | 1012.5 |
| 20260906000659 | 84 | 225 | 7.0 | 14.0 | 0.00 | 0.00 | 0.00 | 9 | 1012.5 |
| 20260906000500 | 84 | 190 | 8.0 | 10.0 | 0.00 | 0.00 | 0.00 | 10 | 1012.4 |
| 20260906000300 | 84 | 212 | 8.0 | 10.0 | 0.00 | 0.00 | 0.00 | 10 | 1012.4 |
| 20260906000159 | 84 | 172 | 6.0 | 10.0 | 0.00 | 0.00 | 0.00 | 11 | 1012.4 |
| 20260906000100 | 84 | 179 | 7.0 | 10.0 | 0.00 | 0.00 | 0.00 | 10 | 1012.4 |
| 20260906000005 | 84 | 215 | 6.0 | 8.0 | 0.00 | 0.00 | 0.00 | 10 | 1012.5 |
| 20260905235901 | 84 | 204 | 6.0 | 8.0 | 0.00 | 0.00 | 0.00 | 11 | 1012.4 |
| 20260905235759 | 84 | 193 | 2.0 | 8.0 | 0.00 | 0.00 | 0.00 | 12 | 1012.4 |
| 20260905235700 | 84 | 321 | 1.0 | 8.0 | 0.00 | 0.00 | 0.00 | 11 | 1012.4 |
| 20260905235559 | 84 | 245 | 3.0 | 8.0 | 0.00 | 0.00 | 0.00 | 11 | 1012.4 |